Wetterdaten: aktuell Donnerstag, 05.12.2019 20:58
Datum Zeit Temp. I. Temp. 2m Temp. 5cm Feuchte I. Feuchte 2m Luftdruck Regen Wind Richtung Richtung Taupunkt Windchill Windben
05.12.2019 20:58 13,6 C -4,3 C 1,6 C 66 % 93 % 1018,8 hPa 0,0 l/m 0,5 km/h (0 Bft) SO 135 -5,3 C -4,3 C 2,5 km/h (1 Bft)
05.12.2019 20:56 13,6 C -4,5 C 1,6 C 66 % 93 % 1018,8 hPa 0,0 l/m 0,2 km/h (0 Bft) NO 45 -5,5 C -4,5 C 0,0 km/h (0 Bft)
05.12.2019 20:54 13,6 C -4,5 C 1,6 C 66 % 93 % 1018,8 hPa 0,0 l/m 0,3 km/h (0 Bft) O-NO 67 -5,5 C -4,5 C 0,0 km/h (0 Bft)
05.12.2019 20:52 13,6 C -4,5 C 1,5 C 66 % 93 % 1018,8 hPa 0,0 l/m 0,3 km/h (0 Bft) SO 135 -5,5 C -4,5 C 2,5 km/h (1 Bft)
05.12.2019 20:50 13,6 C -4,5 C 1,5 C 66 % 93 % 1018,8 hPa 0,0 l/m 0,2 km/h (0 Bft) O 90 -5,5 C -4,5 C 0,0 km/h (0 Bft)
05.12.2019 20:48 13,6 C -4,5 C 1,6 C 66 % 93 % 1019,0 hPa 0,0 l/m 0,6 km/h (0 Bft) O-NO 67 -5,5 C -4,5 C 0,0 km/h (0 Bft)
05.12.2019 20:46 13,6 C -4,5 C 1,5 C 66 % 93 % 1019,0 hPa 0,0 l/m 0,6 km/h (0 Bft) NO 45 -5,5 C -4,5 C 0,0 km/h (0 Bft)
05.12.2019 20:44 13,6 C -4,5 C 1,5 C 66 % 93 % 1019,0 hPa 0,0 l/m 0,5 km/h (0 Bft) SO 135 -5,5 C -4,5 C 0,0 km/h (0 Bft)
05.12.2019 20:42 13,6 C -4,5 C 1,5 C 66 % 93 % 1019,0 hPa 0,0 l/m 0,5 km/h (0 Bft) S-SW 202 -5,5 C -4,5 C 0,0 km/h (0 Bft)
05.12.2019 20:40 13,6 C -4,5 C 1,6 C 66 % 93 % 1019,0 hPa 0,0 l/m 0,6 km/h (0 Bft) O-SO 112 -5,5 C -4,5 C 0,0 km/h (0 Bft)
05.12.2019 20:38 13,6 C -4,3 C 1,6 C 66 % 93 % 1019,0 hPa 0,0 l/m 0,6 km/h (0 Bft) SO 135 -5,3 C -4,3 C 2,9 km/h (1 Bft)
05.12.2019 20:36 13,6 C -4,3 C 1,6 C 66 % 93 % 1019,0 hPa 0,0 l/m 0,6 km/h (0 Bft) O-SO 112 -5,3 C -4,3 C 0,0 km/h (0 Bft)
05.12.2019 20:34 13,6 C -4,3 C 1,6 C 66 % 93 % 1019,0 hPa 0,0 l/m 0,8 km/h (0 Bft) O-NO 67 -5,3 C -4,3 C 0,0 km/h (0 Bft)
05.12.2019 20:32 13,6 C -4,3 C 1,6 C 66 % 93 % 1019,0 hPa 0,0 l/m 0,8 km/h (0 Bft) O-SO 112 -5,3 C -4,3 C 0,0 km/h (0 Bft)
05.12.2019 20:30 13,6 C -4,3 C 1,6 C 66 % 93 % 1019,0 hPa 0,0 l/m 0,8 km/h (0 Bft) O-NO 67 -5,3 C -4,3 C 2,3 km/h (1 Bft)
05.12.2019 20:28 13,6 C -4,3 C 1,6 C 66 % 93 % 1019,1 hPa 0,0 l/m 0,6 km/h (0 Bft) NO 45 -5,3 C -4,3 C 2,7 km/h (1 Bft)
05.12.2019 20:26 13,6 C -4,3 C 1,6 C 66 % 93 % 1019,1 hPa 0,0 l/m 0,5 km/h (0 Bft) N-NO 22 -5,3 C -4,3 C 2,1 km/h (1 Bft)
05.12.2019 20:24 13,6 C -4,3 C 1,6 C 66 % 93 % 1019,1 hPa 0,0 l/m 0,5 km/h (0 Bft) N-NO 22 -5,3 C -4,3 C 2,3 km/h (1 Bft)
05.12.2019 20:22 13,6 C -4,3 C 1,6 C 66 % 93 % 1019,1 hPa 0,0 l/m 0,3 km/h (0 Bft) O-NO 67 -5,3 C -4,3 C 0,0 km/h (0 Bft)
05.12.2019 20:20 13,6 C -4,3 C 1,6 C 66 % 93 % 1019,1 hPa 0,0 l/m 0,5 km/h (0 Bft) O 90 -5,3 C -4,3 C 0,0 km/h (0 Bft)
05.12.2019 20:18 13,6 C -4,3 C 1,6 C 66 % 93 % 1019,1 hPa 0,0 l/m 0,5 km/h (0 Bft) O-NO 67 -5,3 C -4,3 C 0,0 km/h (0 Bft)
05.12.2019 20:16 13,6 C -4,3 C 1,6 C 66 % 93 % 1019,1 hPa 0,0 l/m 0,5 km/h (0 Bft) NO 45 -5,3 C -4,3 C 2,5 km/h (1 Bft)
05.12.2019 20:14 13,6 C -4,3 C 1,6 C 66 % 93 % 1019,1 hPa 0,0 l/m 0,5 km/h (0 Bft) N-NO 22 -5,3 C -4,3 C 2,9 km/h (1 Bft)
05.12.2019 20:12 13,6 C -4,3 C 1,6 C 66 % 93 % 1019,1 hPa 0,0 l/m 0,5 km/h (0 Bft) O-NO 67 -5,3 C -4,3 C 0,0 km/h (0 Bft)
05.12.2019 20:10 13,6 C -4,3 C 1,6 C 66 % 93 % 1019,1 hPa 0,0 l/m 0,6 km/h (0 Bft) O 90 -5,3 C -4,3 C 2,7 km/h (1 Bft)
05.12.2019 20:08 13,6 C -4,5 C 1,6 C 66 % 93 % 1018,9 hPa 0,0 l/m 0,8 km/h (0 Bft) O 90 -5,5 C -4,5 C 0,0 km/h (0 Bft)
05.12.2019 20:06 13,6 C -4,5 C 1,6 C 66 % 93 % 1018,9 hPa 0,0 l/m 1,1 km/h (1 Bft) S-SO 157 -5,5 C -4,5 C 0,0 km/h (0 Bft)
05.12.2019 20:04 13,6 C -4,5 C 1,6 C 66 % 93 % 1018,9 hPa 0,0 l/m 1,3 km/h (1 Bft) SO 135 -5,5 C -4,5 C 0,0 km/h (0 Bft)
05.12.2019 20:02 13,6 C -4,3 C 1,6 C 66 % 93 % 1018,9 hPa 0,0 l/m 1,3 km/h (1 Bft) O-SO 112 -5,3 C -4,3 C 2,1 km/h (1 Bft)
05.12.2019 20:00 13,6 C -4,3 C 1,6 C 66 % 93 % 1018,9 hPa 0,0 l/m 1,1 km/h (1 Bft) O-SO 112 -5,3 C -4,3 C 2,3 km/h (1 Bft)
05.12.2019 19:58 13,6 C -4,3 C 1,6 C 66 % 93 % 1018,9 hPa 0,0 l/m 1,0 km/h (0 Bft) O-NO 67 -5,3 C -4,3 C 3,7 km/h (1 Bft)
05.12.2019 19:56 13,6 C -4,3 C 1,6 C 66 % 93 % 1018,9 hPa 0,0 l/m 0,8 km/h (0 Bft) NO 45 -5,3 C -4,3 C 3,7 km/h (1 Bft)
05.12.2019 19:54 13,6 C -4,5 C 1,6 C 66 % 93 % 1018,9 hPa 0,0 l/m 0,3 km/h (0 Bft) NO 45 -5,5 C -4,5 C 2,3 km/h (1 Bft)
05.12.2019 19:52 13,6 C -4,5 C 1,6 C 66 % 93 % 1018,9 hPa 0,0 l/m 0,3 km/h (0 Bft) N-NO 22 -5,5 C -4,5 C 0,0 km/h (0 Bft)
05.12.2019 19:50 13,6 C -4,5 C 1,6 C 66 % 93 % 1018,9 hPa 0,0 l/m 0,3 km/h (0 Bft) N-NO 22 -5,5 C -4,5 C 0,0 km/h (0 Bft)
05.12.2019 19:48 13,6 C -4,5 C 1,6 C 66 % 93 % 1019,1 hPa 0,0 l/m 0,3 km/h (0 Bft) NO 45 -5,5 C -4,5 C 1,9 km/h (1 Bft)
05.12.2019 19:46 13,6 C -4,5 C 1,6 C 66 % 93 % 1019,1 hPa 0,0 l/m 0,8 km/h (0 Bft) N-NO 22 -5,5 C -4,5 C 0,0 km/h (0 Bft)
05.12.2019 19:44 13,6 C -4,5 C 1,5 C 66 % 93 % 1019,1 hPa 0,0 l/m 1,1 km/h (1 Bft) NO 45 -5,5 C -4,5 C 0,0 km/h (0 Bft)
05.12.2019 19:42 13,6 C -4,5 C 1,5 C 66 % 93 % 1019,1 hPa 0,0 l/m 1,6 km/h (1 Bft) O-SO 112 -5,5 C -4,5 C 1,9 km/h (1 Bft)
05.12.2019 19:40 13,6 C -4,3 C 1,5 C 66 % 93 % 1019,1 hPa 0,0 l/m 1,8 km/h (1 Bft) SO 135 -5,3 C -4,3 C 0,0 km/h (0 Bft)
05.12.2019 19:38 13,6 C -4,3 C 1,5 C 66 % 93 % 1019,1 hPa 0,0 l/m 1,6 km/h (1 Bft) S-SO 157 -5,3 C -4,3 C 2,3 km/h (1 Bft)
05.12.2019 19:36 13,6 C -4,3 C 1,5 C 66 % 93 % 1019,1 hPa 0,0 l/m 1,3 km/h (1 Bft) SO 135 -5,3 C -4,3 C 3,7 km/h (1 Bft)
05.12.2019 19:34 13,6 C -4,2 C 1,5 C 66 % 93 % 1019,1 hPa 0,0 l/m 1,1 km/h (1 Bft) S-SO 157 -5,2 C -4,2 C 2,7 km/h (1 Bft)
05.12.2019 19:32 13,6 C -4,2 C 1,5 C 66 % 93 % 1019,1 hPa 0,0 l/m 0,8 km/h (0 Bft) SW 225 -5,2 C -4,2 C 3,1 km/h (1 Bft)
05.12.2019 19:30 13,6 C -4,2 C 1,5 C 66 % 93 % 1019,1 hPa 0,0 l/m 0,8 km/h (0 Bft) SO 135 -5,2 C -4,2 C 2,9 km/h (1 Bft)
05.12.2019 19:28 13,6 C -4,2 C 1,5 C 66 % 93 % 1018,9 hPa 0,0 l/m 1,0 km/h (0 Bft) S 180 -5,2 C -4,2 C 0,0 km/h (0 Bft)
05.12.2019 19:26 13,6 C -4,2 C 1,5 C 66 % 93 % 1018,9 hPa 0,0 l/m 1,0 km/h (0 Bft) O 90 -5,2 C -4,2 C 0,0 km/h (0 Bft)
05.12.2019 19:24 13,6 C -4,3 C 1,5 C 66 % 93 % 1018,9 hPa 0,0 l/m 1,1 km/h (1 Bft) S 180 -5,3 C -4,3 C 2,7 km/h (1 Bft)
05.12.2019 19:22 13,6 C -4,3 C 1,5 C 66 % 93 % 1018,9 hPa 0,0 l/m 1,0 km/h (0 Bft) S 180 -5,3 C -4,3 C 2,5 km/h (1 Bft)
05.12.2019 19:20 13,6 C -4,2 C 1,5 C 66 % 93 % 1018,9 hPa 0,0 l/m 0,8 km/h (0 Bft) S 180 -5,2 C -4,2 C 3,7 km/h (1 Bft)
05.12.2019 19:18 13,6 C -4,2 C 1,6 C 66 % 93 % 1018,9 hPa 0,0 l/m 0,5 km/h (0 Bft) S 180 -5,2 C -4,2 C 2,1 km/h (1 Bft)
05.12.2019 19:16 13,6 C -4,2 C 1,6 C 66 % 93 % 1018,9 hPa 0,0 l/m 0,5 km/h (0 Bft) S-SO 157 -5,2 C -4,2 C 0,0 km/h (0 Bft)
05.12.2019 19:14 13,6 C -4,2 C 1,6 C 66 % 93 % 1018,9 hPa 0,0 l/m 0,5 km/h (0 Bft) O-SO 112 -5,2 C -4,2 C 0,0 km/h (0 Bft)
05.12.2019 19:12 13,6 C -4,2 C 1,6 C 66 % 93 % 1018,9 hPa 0,0 l/m 0,5 km/h (0 Bft) S 180 -5,2 C -4,2 C 0,0 km/h (0 Bft)
05.12.2019 19:10 13,6 C -4,2 C 1,6 C 66 % 93 % 1018,9 hPa 0,0 l/m 0,6 km/h (0 Bft) S 180 -5,2 C -4,2 C 0,0 km/h (0 Bft)
05.12.2019 19:08 13,6 C -4,2 C 1,6 C 66 % 93 % 1018,9 hPa 0,0 l/m 0,5 km/h (0 Bft) S-SO 157 -5,2 C -4,2 C 3,1 km/h (1 Bft)
05.12.2019 19:06 13,6 C -4,2 C 1,6 C 66 % 93 % 1018,9 hPa 0,0 l/m 0,6 km/h (0 Bft) S-SO 157 -5,2 C -4,2 C 1,9 km/h (1 Bft)
05.12.2019 19:04 13,6 C -4,2 C 1,6 C 66 % 93 % 1018,9 hPa 0,0 l/m 0,6 km/h (0 Bft) SO 135 -5,2 C -4,2 C 0,0 km/h (0 Bft)
05.12.2019 19:02 13,6 C -4,2 C 1,7 C 66 % 93 % 1018,9 hPa 0,0 l/m 0,8 km/h (0 Bft) S 180 -5,2 C -4,2 C 2,5 km/h (1 Bft)
05.12.2019 19:00 13,6 C -4,2 C 1,7 C 66 % 93 % 1018,9 hPa 0,0 l/m 0,8 km/h (0 Bft) SO 135 -5,2 C -4,2 C 0,0 km/h (0 Bft)
05.12.2019 18:58 13,6 C -4,2 C 1,7 C 66 % 93 % 1018,9 hPa 0,0 l/m 0,8 km/h (0 Bft) S-SW 202 -5,2 C -4,2 C 0,0 km/h (0 Bft)
05.12.2019 18:56 13,6 C -4,2 C 1,7 C 66 % 93 % 1018,9 hPa 0,0 l/m 0,5 km/h (0 Bft) O-SO 112 -5,2 C -4,2 C 2,1 km/h (1 Bft)
05.12.2019 18:54 13,6 C -4,2 C 1,7 C 66 % 93 % 1018,9 hPa 0,0 l/m 0,5 km/h (0 Bft) NO 45 -5,2 C -4,2 C 2,3 km/h (1 Bft)
05.12.2019 18:52 13,6 C -4,3 C 1,7 C 66 % 93 % 1018,9 hPa 0,0 l/m 0,3 km/h (0 Bft) O-NO 67 -5,3 C -4,3 C 0,0 km/h (0 Bft)
05.12.2019 18:50 13,6 C -4,3 C 1,7 C 66 % 93 % 1018,9 hPa 0,0 l/m 0,3 km/h (0 Bft) N-NO 22 -5,3 C -4,3 C 0,0 km/h (0 Bft)
05.12.2019 18:48 13,7 C -4,3 C 1,7 C 66 % 93 % 1018,9 hPa 0,0 l/m 0,2 km/h (0 Bft) NO 45 -5,3 C -4,3 C 0,0 km/h (0 Bft)
05.12.2019 18:46 13,7 C -4,3 C 1,7 C 66 % 93 % 1018,9 hPa 0,0 l/m 0,2 km/h (0 Bft) O-NO 67 -5,3 C -4,3 C 0,0 km/h (0 Bft)
05.12.2019 18:44 13,6 C -4,3 C 1,7 C 66 % 93 % 1018,9 hPa 0,0 l/m 0,2 km/h (0 Bft) O-SO 112 -5,3 C -4,3 C 3,5 km/h (1 Bft)
05.12.2019 18:42 13,7 C -4,3 C 1,7 C 66 % 93 % 1018,9 hPa 0,0 l/m 0,2 km/h (0 Bft) NO 45 -5,3 C -4,3 C 0,0 km/h (0 Bft)
05.12.2019 18:40 13,6 C -4,3 C 1,7 C 66 % 93 % 1018,9 hPa 0,0 l/m 0,2 km/h (0 Bft) S 180 -5,3 C -4,3 C 0,0 km/h (0 Bft)
05.12.2019 18:38 13,6 C -4,3 C 1,7 C 66 % 93 % 1018,9 hPa 0,0 l/m 0,2 km/h (0 Bft) W-SW 247 -5,3 C -4,3 C 0,0 km/h (0 Bft)
05.12.2019 18:36 13,6 C -4,3 C 1,7 C 66 % 93 % 1018,9 hPa 0,0 l/m 0,3 km/h (0 Bft) O-SO 112 -5,3 C -4,3 C 0,0 km/h (0 Bft)
05.12.2019 18:34 13,6 C -4,3 C 1,7 C 66 % 93 % 1018,9 hPa 0,0 l/m 0,3 km/h (0 Bft) O 90 -5,3 C -4,3 C 2,1 km/h (1 Bft)
05.12.2019 18:32 13,6 C -4,3 C 1,7 C 66 % 93 % 1018,9 hPa 0,0 l/m 0,6 km/h (0 Bft) O 90 -5,3 C -4,3 C 0,0 km/h (0 Bft)
05.12.2019 18:30 13,7 C -4,2 C 1,7 C 66 % 93 % 1018,9 hPa 0,0 l/m 0,6 km/h (0 Bft) NO 45 -5,2 C -4,2 C 0,0 km/h (0 Bft)
05.12.2019 18:28 13,7 C -4,2 C 1,7 C 66 % 93 % 1018,7 hPa 0,0 l/m 0,8 km/h (0 Bft) W 270 -5,2 C -4,2 C 0,0 km/h (0 Bft)
05.12.2019 18:26 13,7 C -4,2 C 1,7 C 66 % 93 % 1018,7 hPa 0,0 l/m 1,1 km/h (1 Bft) O 90 -5,2 C -4,2 C 0,0 km/h (0 Bft)
05.12.2019 18:24 13,7 C -4,2 C 1,7 C 66 % 93 % 1018,7 hPa 0,0 l/m 1,4 km/h (1 Bft) O-NO 67 -5,2 C -4,2 C 0,0 km/h (0 Bft)
05.12.2019 18:22 13,6 C -4,2 C 1,7 C 66 % 93 % 1018,7 hPa 0,0 l/m 1,6 km/h (1 Bft) O-NO 67 -5,2 C -4,2 C 2,7 km/h (1 Bft)
05.12.2019 18:20 13,6 C -4,3 C 1,7 C 66 % 93 % 1018,7 hPa 0,0 l/m 1,6 km/h (1 Bft) NO 45 -5,3 C -4,3 C 0,0 km/h (0 Bft)
05.12.2019 18:18 13,7 C -4,2 C 1,7 C 66 % 93 % 1018,7 hPa 0,0 l/m 1,6 km/h (1 Bft) O-NO 67 -5,2 C -4,2 C 2,7 km/h (1 Bft)
05.12.2019 18:16 13,7 C -4,2 C 1,7 C 66 % 93 % 1018,7 hPa 0,0 l/m 1,1 km/h (1 Bft) O-SO 112 -5,2 C -4,2 C 2,9 km/h (1 Bft)
05.12.2019 18:14 13,7 C -4,2 C 1,7 C 66 % 93 % 1018,7 hPa 0,0 l/m 1,4 km/h (1 Bft) O-SO 112 -5,2 C -4,2 C 3,1 km/h (1 Bft)
05.12.2019 18:12 13,7 C -4,1 C 1,7 C 66 % 93 % 1018,7 hPa 0,0 l/m 1,3 km/h (1 Bft) O-NO 67 -5,1 C -4,1 C 3,1 km/h (1 Bft)
05.12.2019 18:10 13,7 C -4,2 C 1,7 C 66 % 93 % 1018,7 hPa 0,0 l/m 1,4 km/h (1 Bft) O-SO 112 -5,2 C -4,2 C 2,3 km/h (1 Bft)
05.12.2019 18:08 13,6 C -4,2 C 1,7 C 66 % 93 % 1018,6 hPa 0,0 l/m 1,6 km/h (1 Bft) O-SO 112 -5,2 C -4,2 C 0,0 km/h (0 Bft)
05.12.2019 18:06 13,7 C -4,2 C 1,7 C 65 % 93 % 1018,6 hPa 0,0 l/m 1,6 km/h (1 Bft) O-SO 112 -5,2 C -4,2 C 0,0 km/h (0 Bft)
05.12.2019 18:04 13,7 C -4,2 C 1,7 C 66 % 93 % 1018,6 hPa 0,0 l/m 1,8 km/h (1 Bft) NO 45 -5,2 C -4,2 C 4,1 km/h (1 Bft)
05.12.2019 18:02 13,7 C -4,2 C 1,7 C 65 % 93 % 1018,6 hPa 0,0 l/m 1,6 km/h (1 Bft) O-NO 67 -5,2 C -4,2 C 3,3 km/h (1 Bft)
05.12.2019 18:00 13,7 C -4,2 C 1,7 C 66 % 93 % 1018,6 hPa 0,0 l/m 1,6 km/h (1 Bft) S 180 -5,2 C -4,2 C 2,1 km/h (1 Bft)
05.12.2019 17:58 13,6 C -4,2 C 1,7 C 66 % 93 % 1018,6 hPa 0,0 l/m 1,3 km/h (1 Bft) O-NO 67 -5,2 C -4,2 C 4,2 km/h (1 Bft)
05.12.2019 17:56 13,7 C -4,2 C 1,7 C 66 % 93 % 1018,6 hPa 0,0 l/m 1,3 km/h (1 Bft) O-NO 67 -5,2 C -4,2 C 2,5 km/h (1 Bft)
05.12.2019 17:54 13,6 C -4,2 C 1,7 C 66 % 93 % 1018,6 hPa 0,0 l/m 1,4 km/h (1 Bft) O-NO 67 -5,2 C -4,2 C 3,1 km/h (1 Bft)
05.12.2019 17:52 13,6 C -4,2 C 1,7 C 65 % 93 % 1018,6 hPa 0,0 l/m 1,6 km/h (1 Bft) O-NO 67 -5,2 C -4,2 C 2,7 km/h (1 Bft)
05.12.2019 17:50 13,6 C -4,2 C 1,7 C 66 % 93 % 1018,6 hPa 0,0 l/m 1,8 km/h (1 Bft) O-SO 112 -5,2 C -4,2 C 0,0 km/h (0 Bft)
05.12.2019 17:48 13,6 C -4,2 C 1,7 C 65 % 93 % 1018,5 hPa 0,0 l/m 2,1 km/h (1 Bft) N-NO 22 -5,2 C -4,2 C 0,0 km/h (0 Bft)
05.12.2019 17:46 13,6 C -4,2 C 1,7 C 66 % 93 % 1018,5 hPa 0,0 l/m 2,1 km/h (1 Bft) O-NO 67 -5,2 C -4,2 C 0,0 km/h (0 Bft)
05.12.2019 17:44 13,6 C -4,2 C 1,7 C 65 % 93 % 1018,5 hPa 0,0 l/m 2,4 km/h (1 Bft) O-NO 67 -5,2 C -4,2 C 4,4 km/h (1 Bft)
05.12.2019 17:42 13,6 C -4,2 C 1,8 C 65 % 93 % 1018,5 hPa 0,0 l/m 2,4 km/h (1 Bft) O-NO 67 -5,2 C -4,2 C 2,7 km/h (1 Bft)
05.12.2019 17:40 13,6 C -4,2 C 1,8 C 65 % 93 % 1018,5 hPa 0,0 l/m 1,9 km/h (1 Bft) N-NO 22 -5,2 C -4,2 C 4,1 km/h (1 Bft)
05.12.2019 17:38 13,7 C -4,2 C 1,8 C 66 % 93 % 1018,5 hPa 0,0 l/m 1,6 km/h (1 Bft) N-NO 22 -5,2 C -4,2 C 3,3 km/h (1 Bft)
05.12.2019 17:36 13,6 C -4,3 C 1,8 C 65 % 93 % 1018,5 hPa 0,0 l/m 1,9 km/h (1 Bft) NO 45 -5,3 C -4,3 C 2,9 km/h (1 Bft)
05.12.2019 17:34 13,6 C -4,2 C 1,8 C 65 % 93 % 1018,5 hPa 0,0 l/m 1,4 km/h (1 Bft) N-NO 22 -5,2 C -4,2 C 5,4 km/h (1 Bft)
05.12.2019 17:32 13,6 C -4,3 C 1,7 C 66 % 93 % 1018,5 hPa 0,0 l/m 1,1 km/h (1 Bft) NO 45 -5,3 C -4,3 C 0,0 km/h (0 Bft)
05.12.2019 17:30 13,6 C -4,3 C 1,8 C 66 % 93 % 1018,5 hPa 0,0 l/m 1,1 km/h (1 Bft) O 90 -5,3 C -4,3 C 0,0 km/h (0 Bft)
05.12.2019 17:28 13,6 C -4,3 C 1,8 C 66 % 93 % 1018,4 hPa 0,0 l/m 1,4 km/h (1 Bft) O-NO 67 -5,3 C -4,3 C 3,5 km/h (1 Bft)
05.12.2019 17:26 13,6 C -4,3 C 1,7 C 66 % 93 % 1018,4 hPa 0,0 l/m 1,4 km/h (1 Bft) O-NO 67 -5,3 C -4,3 C 2,9 km/h (1 Bft)
05.12.2019 17:24 13,6 C -4,3 C 1,7 C 65 % 93 % 1018,4 hPa 0,0 l/m 1,8 km/h (1 Bft) O-SO 112 -5,3 C -4,3 C 0,0 km/h (0 Bft)
05.12.2019 17:22 13,6 C -4,3 C 1,8 C 65 % 93 % 1018,4 hPa 0,0 l/m 1,9 km/h (1 Bft) N 360 -5,3 C -4,3 C 3,3 km/h (1 Bft)
05.12.2019 17:20 13,6 C -4,3 C 1,8 C 65 % 93 % 1018,4 hPa 0,0 l/m 1,8 km/h (1 Bft) O 90 -5,3 C -4,3 C 0,0 km/h (0 Bft)
05.12.2019 17:18 13,6 C -4,3 C 1,8 C 66 % 93 % 1018,4 hPa 0,0 l/m 1,4 km/h (1 Bft) N-NO 22 -5,3 C -4,3 C 3,7 km/h (1 Bft)
05.12.2019 17:16 13,6 C -4,2 C 1,8 C 66 % 93 % 1018,4 hPa 0,0 l/m 1,3 km/h (1 Bft) N-NO 22 -5,2 C -4,2 C 3,5 km/h (1 Bft)
05.12.2019 17:14 13,6 C -4,2 C 1,8 C 65 % 93 % 1018,4 hPa 0,0 l/m 0,6 km/h (0 Bft) NO 45 -5,2 C -4,2 C 3,3 km/h (1 Bft)
05.12.2019 17:12 13,8 C -4,2 C 1,8 C 65 % 93 % 1018,4 hPa 0,0 l/m 0,5 km/h (0 Bft) NO 45 -5,2 C -4,2 C 2,7 km/h (1 Bft)
05.12.2019 17:10 13,6 C -4,2 C 1,8 C 65 % 93 % 1018,4 hPa 0,0 l/m 0,5 km/h (0 Bft) N-NO 22 -5,2 C -4,2 C 0,0 km/h (0 Bft)
05.12.2019 17:08 13,8 C -4,3 C 1,8 C 65 % 93 % 1018,3 hPa 0,0 l/m 1,0 km/h (0 Bft) N 360 -5,3 C -4,3 C 0,0 km/h (0 Bft)
05.12.2019 17:06 13,6 C -4,3 C 1,8 C 65 % 93 % 1018,3 hPa 0,0 l/m 1,0 km/h (0 Bft) O 90 -5,3 C -4,3 C 0,0 km/h (0 Bft)
05.12.2019 17:04 13,6 C -4,3 C 1,8 C 65 % 93 % 1018,3 hPa 0,0 l/m 1,0 km/h (0 Bft) O-NO 67 -5,3 C -4,3 C 0,0 km/h (0 Bft)
05.12.2019 17:02 13,6 C -4,2 C 1,8 C 65 % 93 % 1018,3 hPa 0,0 l/m 1,3 km/h (1 Bft) O-NO 67 -5,2 C -4,2 C 2,5 km/h (1 Bft)
05.12.2019 17:00 13,8 C -4,2 C 1,8 C 65 % 93 % 1018,3 hPa 0,0 l/m 1,1 km/h (1 Bft) O 90 -5,2 C -4,2 C 2,3 km/h (1 Bft)
05.12.2019 16:58 13,8 C -4,2 C 1,8 C 65 % 93 % 1018,3 hPa 0,0 l/m 1,0 km/h (0 Bft) O 90 -5,2 C -4,2 C 2,9 km/h (1 Bft)
05.12.2019 16:56 13,8 C -4,2 C 1,8 C 65 % 93 % 1018,3 hPa 0,0 l/m 1,0 km/h (0 Bft) NO 45 -5,2 C -4,2 C 0,0 km/h (0 Bft)
05.12.2019 16:54 13,8 C -4,2 C 1,7 C 65 % 93 % 1018,3 hPa 0,0 l/m 1,0 km/h (0 Bft) O-NO 67 -5,2 C -4,2 C 0,0 km/h (0 Bft)
05.12.2019 16:52 13,8 C -4,2 C 1,7 C 65 % 93 % 1018,3 hPa 0,0 l/m 0,8 km/h (0 Bft) SO 135 -5,2 C -4,2 C 2,9 km/h (1 Bft)
05.12.2019 16:50 13,8 C -4,2 C 1,8 C 65 % 93 % 1018,3 hPa 0,0 l/m 0,5 km/h (0 Bft) S-SO 157 -5,2 C -4,2 C 0,0 km/h (0 Bft)
05.12.2019 16:48 13,8 C -4,2 C 1,8 C 65 % 93 % 1018,3 hPa 0,0 l/m 0,5 km/h (0 Bft) SO 135 -5,2 C -4,2 C 3,3 km/h (1 Bft)
05.12.2019 16:46 13,8 C -4,2 C 1,8 C 65 % 93 % 1018,3 hPa 0,0 l/m 0,6 km/h (0 Bft) O-SO 112 -5,2 C -4,2 C 0,0 km/h (0 Bft)
05.12.2019 16:44 13,6 C -4,2 C 1,8 C 66 % 93 % 1018,3 hPa 0,0 l/m 0,8 km/h (0 Bft) NO 45 -5,2 C -4,2 C 0,0 km/h (0 Bft)
05.12.2019 16:42 13,8 C -4,2 C 1,8 C 65 % 93 % 1018,3 hPa 0,0 l/m 0,6 km/h (0 Bft) O 90 -5,2 C -4,2 C 2,7 km/h (1 Bft)
05.12.2019 16:40 13,8 C -4,1 C 1,8 C 65 % 93 % 1018,3 hPa 0,0 l/m 0,6 km/h (0 Bft) O 90 -5,1 C -4,1 C 0,0 km/h (0 Bft)
05.12.2019 16:38 13,8 C -4,1 C 1,7 C 65 % 93 % 1018,3 hPa 0,0 l/m 1,1 km/h (1 Bft) O-NO 67 -5,1 C -4,1 C 0,0 km/h (0 Bft)
05.12.2019 16:36 13,8 C -4,1 C 1,7 C 65 % 93 % 1018,3 hPa 0,0 l/m 1,0 km/h (0 Bft) SO 135 -5,1 C -4,1 C 3,9 km/h (1 Bft)
05.12.2019 16:34 13,8 C -4,1 C 1,8 C 65 % 93 % 1018,3 hPa 0,0 l/m 0,6 km/h (0 Bft) S-SO 157 -5,1 C -4,1 C 0,0 km/h (0 Bft)
05.12.2019 16:32 13,8 C -4,1 C 1,8 C 65 % 93 % 1018,3 hPa 0,0 l/m 0,6 km/h (0 Bft) W-SW 247 -5,1 C -4,1 C 0,0 km/h (0 Bft)
05.12.2019 16:30 13,8 C -4,1 C 1,8 C 65 % 93 % 1018,3 hPa 0,0 l/m 1,0 km/h (0 Bft) SO 135 -5,1 C -4,1 C 2,9 km/h (1 Bft)
05.12.2019 16:28 13,8 C -3,9 C 1,8 C 65 % 93 % 1018,4 hPa 0,0 l/m 1,0 km/h (0 Bft) SO 135 -4,9 C -3,9 C 4,1 km/h (1 Bft)
05.12.2019 16:26 13,8 C -3,9 C 1,8 C 65 % 93 % 1018,4 hPa 0,0 l/m 1,1 km/h (1 Bft) S-SO 157 -4,9 C -3,9 C 0,0 km/h (0 Bft)
05.12.2019 16:24 13,8 C -3,9 C 1,8 C 65 % 93 % 1018,4 hPa 0,0 l/m 1,3 km/h (1 Bft) O-NO 67 -4,9 C -3,9 C 0,0 km/h (0 Bft)
05.12.2019 16:22 13,8 C -4,1 C 2,0 C 65 % 93 % 1018,4 hPa 0,0 l/m 1,4 km/h (1 Bft) NO 45 -5,1 C -4,1 C 0,0 km/h (0 Bft)
05.12.2019 16:20 13,8 C -4,1 C 2,0 C 65 % 93 % 1018,4 hPa 0,0 l/m 1,4 km/h (1 Bft) NO 45 -5,1 C -4,1 C 0,0 km/h (0 Bft)
05.12.2019 16:18 13,8 C -4,1 C 2,0 C 65 % 93 % 1018,4 hPa 0,0 l/m 1,4 km/h (1 Bft) NO 45 -5,1 C -4,1 C 4,6 km/h (1 Bft)
05.12.2019 16:16 13,8 C -3,9 C 2,0 C 65 % 93 % 1018,4 hPa 0,0 l/m 1,3 km/h (1 Bft) NO 45 -4,9 C -3,9 C 4,1 km/h (1 Bft)
05.12.2019 16:14 13,8 C -4,1 C 2,0 C 65 % 93 % 1018,4 hPa 0,0 l/m 1,4 km/h (1 Bft) O-NO 67 -5,1 C -4,1 C 0,0 km/h (0 Bft)
05.12.2019 16:12 13,8 C -4,1 C 2,0 C 65 % 93 % 1018,4 hPa 0,0 l/m 1,6 km/h (1 Bft) O-NO 67 -5,1 C -4,1 C 2,7 km/h (1 Bft)
05.12.2019 16:10 13,8 C -4,1 C 2,0 C 65 % 93 % 1018,4 hPa 0,0 l/m 1,3 km/h (1 Bft) NO 45 -5,1 C -4,1 C 2,1 km/h (1 Bft)
05.12.2019 16:08 13,8 C -4,1 C 2,0 C 65 % 93 % 1018,3 hPa 0,0 l/m 1,0 km/h (0 Bft) O-NO 67 -5,1 C -4,1 C 1,9 km/h (1 Bft)
05.12.2019 16:06 13,8 C -4,1 C 2,0 C 65 % 93 % 1018,3 hPa 0,0 l/m 0,8 km/h (0 Bft) NO 45 -5,1 C -4,1 C 3,3 km/h (1 Bft)
05.12.2019 16:04 13,8 C -3,9 C 1,8 C 65 % 93 % 1018,3 hPa 0,0 l/m 0,5 km/h (0 Bft) O-NO 67 -4,9 C -3,9 C 2,9 km/h (1 Bft)
05.12.2019 16:02 13,8 C -3,9 C 1,8 C 65 % 93 % 1018,3 hPa 0,0 l/m 0,3 km/h (0 Bft) NO 45 -4,9 C -3,9 C 2,7 km/h (1 Bft)
05.12.2019 16:00 13,8 C -3,9 C 1,8 C 65 % 93 % 1018,3 hPa 0,0 l/m 1,0 km/h (0 Bft) NO 45 -4,9 C -3,9 C 0,0 km/h (0 Bft)
05.12.2019 15:58 13,8 C -3,9 C 1,8 C 65 % 93 % 1018,3 hPa 0,0 l/m 1,1 km/h (1 Bft) SO 135 -4,9 C -3,9 C 0,0 km/h (0 Bft)
05.12.2019 15:56 13,8 C -3,9 C 1,8 C 65 % 93 % 1018,3 hPa 0,0 l/m 1,1 km/h (1 Bft) S-SO 157 -4,9 C -3,9 C 0,0 km/h (0 Bft)
05.12.2019 15:54 13,8 C -3,8 C 1,8 C 65 % 93 % 1018,3 hPa 0,0 l/m 1,1 km/h (1 Bft) SO 135 -4,8 C -3,8 C 2,7 km/h (1 Bft)
05.12.2019 15:52 13,8 C -3,8 C 1,7 C 65 % 93 % 1018,3 hPa 0,0 l/m 1,3 km/h (1 Bft) O-NO 67 -4,8 C -3,8 C 2,3 km/h (1 Bft)
05.12.2019 15:50 13,8 C -3,9 C 1,7 C 65 % 93 % 1018,3 hPa 0,0 l/m 1,4 km/h (1 Bft) S 180 -4,9 C -3,9 C 4,8 km/h (1 Bft)
05.12.2019 15:48 13,8 C -3,9 C 1,8 C 65 % 93 % 1018,5 hPa 0,0 l/m 1,4 km/h (1 Bft) S-SO 157 -4,9 C -3,9 C 2,7 km/h (1 Bft)
05.12.2019 15:46 13,8 C -4,1 C 1,8 C 65 % 93 % 1018,5 hPa 0,0 l/m 1,6 km/h (1 Bft) SO 135 -5,1 C -4,1 C 0,0 km/h (0 Bft)
05.12.2019 15:44 13,8 C -4,1 C 1,8 C 65 % 93 % 1018,5 hPa 0,0 l/m 1,9 km/h (1 Bft) O-SO 112 -5,1 C -4,1 C 0,0 km/h (0 Bft)
05.12.2019 15:42 13,8 C -3,9 C 1,8 C 65 % 93 % 1018,5 hPa 0,0 l/m 1,9 km/h (1 Bft) O-SO 112 -4,9 C -3,9 C 0,0 km/h (0 Bft)
05.12.2019 15:40 13,8 C -3,9 C 2,0 C 65 % 93 % 1018,5 hPa 0,0 l/m 1,9 km/h (1 Bft) O-SO 112 -4,9 C -3,9 C 4,4 km/h (1 Bft)
05.12.2019 15:38 13,8 C -3,9 C 2,0 C 65 % 93 % 1018,5 hPa 0,0 l/m 1,6 km/h (1 Bft) SO 135 -4,9 C -3,9 C 3,5 km/h (1 Bft)
05.12.2019 15:36 13,8 C -3,9 C 2,0 C 65 % 93 % 1018,5 hPa 0,0 l/m 1,3 km/h (1 Bft) O-SO 112 -4,9 C -3,9 C 3,3 km/h (1 Bft)
05.12.2019 15:34 13,8 C -3,8 C 2,0 C 65 % 93 % 1018,5 hPa 0,0 l/m 1,3 km/h (1 Bft) O-SO 112 -4,8 C -3,8 C 3,5 km/h (1 Bft)
05.12.2019 15:32 13,8 C -3,9 C 2,0 C 65 % 93 % 1018,5 hPa 0,0 l/m 1,1 km/h (1 Bft) SO 135 -4,9 C -3,9 C 3,1 km/h (1 Bft)
05.12.2019 15:30 13,8 C -3,8 C 2,0 C 65 % 93 % 1018,5 hPa 0,0 l/m 1,1 km/h (1 Bft) SO 135 -4,8 C -3,8 C 0,0 km/h (0 Bft)
05.12.2019 15:28 13,9 C -3,8 C 2,0 C 65 % 93 % 1018,6 hPa 0,0 l/m 1,4 km/h (1 Bft) O 90 -4,8 C -3,8 C 1,9 km/h (1 Bft)
05.12.2019 15:26 13,8 C -3,8 C 2,0 C 65 % 93 % 1018,6 hPa 0,0 l/m 1,6 km/h (1 Bft) SO 135 -4,8 C -3,8 C 0,0 km/h (0 Bft)
05.12.2019 15:24 13,8 C -3,8 C 2,0 C 65 % 93 % 1018,6 hPa 0,0 l/m 1,8 km/h (1 Bft) SO 135 -4,8 C -3,8 C 2,1 km/h (1 Bft)
05.12.2019 15:22 13,9 C -3,8 C 2,0 C 65 % 93 % 1018,6 hPa 0,0 l/m 1,6 km/h (1 Bft) SO 135 -4,8 C -3,8 C 2,1 km/h (1 Bft)
05.12.2019 15:20 13,9 C -3,8 C 2,1 C 65 % 93 % 1018,6 hPa 0,0 l/m 1,4 km/h (1 Bft) O-SO 112 -4,8 C -3,8 C 3,5 km/h (1 Bft)
05.12.2019 15:18 13,9 C -3,7 C 2,1 C 65 % 93 % 1018,6 hPa 0,0 l/m 1,4 km/h (1 Bft) O-NO 67 -4,7 C -3,7 C 3,1 km/h (1 Bft)
05.12.2019 15:16 13,9 C -3,7 C 2,1 C 65 % 93 % 1018,6 hPa 0,0 l/m 1,1 km/h (1 Bft) S-SO 157 -4,7 C -3,7 C 2,1 km/h (1 Bft)
05.12.2019 15:14 13,9 C -3,7 C 2,2 C 65 % 93 % 1018,6 hPa 0,0 l/m 1,1 km/h (1 Bft) SO 135 -4,7 C -3,7 C 2,5 km/h (1 Bft)
05.12.2019 15:12 13,8 C -3,7 C 2,2 C 65 % 93 % 1018,6 hPa 0,0 l/m 1,4 km/h (1 Bft) O-NO 67 -4,7 C -3,7 C 2,3 km/h (1 Bft)
05.12.2019 15:10 13,8 C -3,7 C 2,2 C 65 % 93 % 1018,6 hPa 0,0 l/m 1,4 km/h (1 Bft) O-NO 67 -4,7 C -3,7 C 2,1 km/h (1 Bft)
05.12.2019 15:08 13,9 C -3,7 C 2,2 C 65 % 93 % 1018,6 hPa 0,0 l/m 1,4 km/h (1 Bft) NO 45 -4,7 C -3,7 C 3,5 km/h (1 Bft)
05.12.2019 15:06 13,9 C -3,7 C 2,2 C 65 % 93 % 1018,6 hPa 0,0 l/m 1,6 km/h (1 Bft) O-NO 67 -4,7 C -3,7 C 2,3 km/h (1 Bft)
05.12.2019 15:04 13,9 C -3,7 C 2,3 C 65 % 93 % 1018,6 hPa 0,0 l/m 1,8 km/h (1 Bft) NO 45 -4,7 C -3,7 C 2,1 km/h (1 Bft)
05.12.2019 15:02 13,9 C -3,5 C 2,3 C 65 % 93 % 1018,6 hPa 0,0 l/m 1,4 km/h (1 Bft) O-NO 67 -4,5 C -3,5 C 3,5 km/h (1 Bft)
05.12.2019 15:00 13,9 C -3,5 C 2,3 C 65 % 93 % 1018,6 hPa 0,0 l/m 1,6 km/h (1 Bft) O-NO 67 -4,5 C -3,5 C 2,3 km/h (1 Bft)
05.12.2019 14:58 13,9 C -3,5 C 2,3 C 65 % 93 % 1018,6 hPa 0,0 l/m 1,4 km/h (1 Bft) NO 45 -4,5 C -3,5 C 2,5 km/h (1 Bft)
05.12.2019 14:56 13,8 C -3,4 C 2,3 C 65 % 93 % 1018,6 hPa 0,0 l/m 1,3 km/h (1 Bft) O-NO 67 -4,4 C -3,4 C 2,3 km/h (1 Bft)
05.12.2019 14:54 13,9 C -3,5 C 2,3 C 65 % 93 % 1018,6 hPa 0,0 l/m 1,3 km/h (1 Bft) O-NO 67 -4,5 C -3,5 C 0,0 km/h (0 Bft)
05.12.2019 14:52 13,9 C -3,4 C 2,3 C 65 % 93 % 1018,6 hPa 0,0 l/m 1,4 km/h (1 Bft) O-NO 67 -4,4 C -3,4 C 3,7 km/h (1 Bft)
05.12.2019 14:50 13,9 C -3,4 C 2,3 C 65 % 93 % 1018,6 hPa 0,0 l/m 1,0 km/h (0 Bft) NO 45 -4,4 C -3,4 C 3,3 km/h (1 Bft)
05.12.2019 14:48 13,9 C -3,4 C 2,3 C 65 % 93 % 1018,4 hPa 0,0 l/m 1,1 km/h (1 Bft) O-SO 112 -4,4 C -3,4 C 0,0 km/h (0 Bft)
05.12.2019 14:46 13,9 C -3,4 C 2,3 C 65 % 93 % 1018,4 hPa 0,0 l/m 1,6 km/h (1 Bft) NO 45 -4,4 C -3,4 C 1,9 km/h (1 Bft)
05.12.2019 14:44 13,9 C -3,5 C 2,3 C 65 % 93 % 1018,4 hPa 0,0 l/m 1,6 km/h (1 Bft) O-NO 67 -4,5 C -3,5 C 3,1 km/h (1 Bft)
05.12.2019 14:42 13,9 C -3,5 C 2,2 C 65 % 93 % 1018,4 hPa 0,0 l/m 1,3 km/h (1 Bft) O-NO 67 -4,5 C -3,5 C 2,5 km/h (1 Bft)
05.12.2019 14:40 13,9 C -3,5 C 2,2 C 65 % 93 % 1018,4 hPa 0,0 l/m 1,4 km/h (1 Bft) O-SO 112 -4,5 C -3,5 C 2,9 km/h (1 Bft)
05.12.2019 14:38 13,9 C -3,5 C 2,2 C 65 % 93 % 1018,4 hPa 0,0 l/m 1,8 km/h (1 Bft) O 90 -4,5 C -3,5 C 2,7 km/h (1 Bft)
05.12.2019 14:36 13,9 C -3,5 C 2,2 C 65 % 93 % 1018,4 hPa 0,0 l/m 1,4 km/h (1 Bft) O-SO 112 -4,5 C -3,5 C 3,7 km/h (1 Bft)
05.12.2019 14:34 13,8 C -3,5 C 2,2 C 65 % 93 % 1018,4 hPa 0,0 l/m 1,1 km/h (1 Bft) SO 135 -4,5 C -3,5 C 2,7 km/h (1 Bft)
05.12.2019 14:32 13,9 C -3,5 C 2,4 C 65 % 93 % 1018,4 hPa 0,0 l/m 1,1 km/h (1 Bft) SO 135 -4,5 C -3,5 C 0,0 km/h (0 Bft)
05.12.2019 14:30 13,9 C -3,4 C 2,3 C 65 % 93 % 1018,4 hPa 0,0 l/m 1,3 km/h (1 Bft) O-NO 67 -4,4 C -3,4 C 3,9 km/h (1 Bft)
05.12.2019 14:28 13,8 C -3,4 C 2,3 C 65 % 93 % 1018,4 hPa 0,0 l/m 1,3 km/h (1 Bft) O-SO 112 -4,4 C -3,4 C 2,9 km/h (1 Bft)
05.12.2019 14:26 13,8 C -3,4 C 2,3 C 65 % 93 % 1018,4 hPa 0,0 l/m 1,1 km/h (1 Bft) O 90 -4,4 C -3,4 C 0,0 km/h (0 Bft)
05.12.2019 14:24 13,8 C -3,4 C 2,3 C 65 % 93 % 1018,4 hPa 0,0 l/m 1,4 km/h (1 Bft) O-NO 67 -4,4 C -3,4 C 2,3 km/h (1 Bft)
05.12.2019 14:22 13,8 C -3,4 C 2,3 C 65 % 93 % 1018,4 hPa 0,0 l/m 1,6 km/h (1 Bft) O-NO 67 -4,4 C -3,4 C 2,9 km/h (1 Bft)
05.12.2019 14:20 13,9 C -3,4 C 2,3 C 65 % 93 % 1018,4 hPa 0,0 l/m 1,6 km/h (1 Bft) O-SO 112 -4,4 C -3,4 C 3,1 km/h (1 Bft)
05.12.2019 14:18 13,9 C -3,5 C 2,4 C 65 % 93 % 1018,4 hPa 0,0 l/m 1,8 km/h (1 Bft) O-NO 67 -4,5 C -3,5 C 4,1 km/h (1 Bft)
05.12.2019 14:16 13,9 C -3,5 C 2,4 C 65 % 93 % 1018,4 hPa 0,0 l/m 1,9 km/h (1 Bft) O-SO 112 -4,5 C -3,5 C 0,0 km/h (0 Bft)
05.12.2019 14:14 13,9 C -3,5 C 2,4 C 65 % 93 % 1018,4 hPa 0,0 l/m 2,3 km/h (1 Bft) O-NO 67 -4,5 C -3,5 C 4,1 km/h (1 Bft)
05.12.2019 14:12 13,8 C -3,5 C 2,3 C 65 % 93 % 1018,4 hPa 0,0 l/m 2,9 km/h (1 Bft) O-NO 67 -4,5 C -3,5 C 0,0 km/h (0 Bft)
05.12.2019 14:10 13,8 C -3,5 C 2,4 C 65 % 93 % 1018,4 hPa 0,0 l/m 3,7 km/h (1 Bft) O-NO 67 -4,5 C -3,5 C 3,5 km/h (1 Bft)
05.12.2019 14:08 13,8 C -3,5 C 2,4 C 65 % 93 % 1018,7 hPa 0,0 l/m 4,0 km/h (1 Bft) O 90 -4,5 C -3,5 C 3,1 km/h (1 Bft)
05.12.2019 14:06 13,9 C -3,5 C 2,4 C 65 % 93 % 1018,7 hPa 0,0 l/m 4,2 km/h (1 Bft) O-NO 67 -4,5 C -3,5 C 4,8 km/h (1 Bft)
05.12.2019 14:04 13,8 C -3,4 C 2,4 C 65 % 93 % 1018,7 hPa 0,0 l/m 4,3 km/h (1 Bft) NO 45 -4,4 C -3,4 C 4,2 km/h (1 Bft)
05.12.2019 14:02 13,8 C -3,5 C 2,4 C 65 % 93 % 1018,7 hPa 0,0 l/m 3,7 km/h (1 Bft) O-NO 67 -4,5 C -3,5 C 5,2 km/h (1 Bft)
05.12.2019 14:00 13,8 C -3,4 C 2,4 C 65 % 93 % 1018,7 hPa 0,0 l/m 2,7 km/h (1 Bft) N-NO 22 -4,4 C -3,4 C 6,4 km/h (2 Bft)
05.12.2019 13:58 13,8 C -3,4 C 2,4 C 65 % 93 % 1018,7 hPa 0,0 l/m 1,9 km/h (1 Bft) NO 45 -4,4 C -3,4 C 6,2 km/h (2 Bft)
05.12.2019 13:56 14,0 C -3,4 C 2,4 C 65 % 93 % 1018,7 hPa 0,0 l/m 1,9 km/h (1 Bft) NO 45 -4,4 C -3,4 C 6,0 km/h (2 Bft)
05.12.2019 13:54 14,0 C -3,5 C 2,4 C 65 % 93 % 1018,7 hPa 0,0 l/m 2,1 km/h (1 Bft) N-NO 22 -4,5 C -3,5 C 5,2 km/h (1 Bft)
05.12.2019 13:52 14,0 C -3,5 C 2,4 C 65 % 93 % 1018,7 hPa 0,0 l/m 2,6 km/h (1 Bft) N 360 -4,5 C -3,5 C 2,3 km/h (1 Bft)
05.12.2019 13:50 14,0 C -3,7 C 2,4 C 65 % 93 % 1018,7 hPa 0,0 l/m 3,2 km/h (1 Bft) O 90 -4,7 C -3,7 C 1,9 km/h (1 Bft)
05.12.2019 13:48 13,8 C -3,7 C 2,4 C 65 % 93 % 1018,7 hPa 0,0 l/m 3,7 km/h (1 Bft) O-NO 67 -4,7 C -3,7 C 3,5 km/h (1 Bft)
05.12.2019 13:46 14,0 C -3,7 C 2,4 C 65 % 93 % 1018,7 hPa 0,0 l/m 3,9 km/h (1 Bft) O-NO 67 -4,7 C -3,7 C 5,4 km/h (1 Bft)
05.12.2019 13:44 14,0 C -3,7 C 2,6 C 65 % 93 % 1018,7 hPa 0,0 l/m 3,7 km/h (1 Bft) O-NO 67 -4,7 C -3,7 C 7,1 km/h (2 Bft)
05.12.2019 13:42 14,0 C -3,7 C 2,6 C 65 % 93 % 1018,7 hPa 0,0 l/m 3,4 km/h (1 Bft) NO 45 -4,7 C -3,7 C 5,8 km/h (2 Bft)
05.12.2019 13:40 13,8 C -3,7 C 2,4 C 65 % 93 % 1018,7 hPa 0,0 l/m 3,4 km/h (1 Bft) NO 45 -4,7 C -3,7 C 3,7 km/h (1 Bft)
05.12.2019 13:38 13,8 C -3,5 C 2,6 C 65 % 93 % 1018,7 hPa 0,0 l/m 3,4 km/h (1 Bft) N-NO 22 -4,5 C -3,5 C 3,9 km/h (1 Bft)
05.12.2019 13:36 13,8 C -3,7 C 2,6 C 65 % 93 % 1018,7 hPa 0,0 l/m 3,5 km/h (1 Bft) N-NO 22 -4,7 C -3,7 C 4,1 km/h (1 Bft)
05.12.2019 13:34 13,8 C -3,7 C 2,6 C 65 % 93 % 1018,7 hPa 0,0 l/m 3,2 km/h (1 Bft) NO 45 -4,7 C -3,7 C 6,6 km/h (2 Bft)
05.12.2019 13:32 13,8 C -3,5 C 2,6 C 65 % 93 % 1018,7 hPa 0,0 l/m 3,7 km/h (1 Bft) O-NO 67 -4,5 C -3,5 C 4,6 km/h (1 Bft)
05.12.2019 13:30 14,0 C -3,7 C 2,6 C 65 % 93 % 1018,7 hPa 0,0 l/m 4,0 km/h (1 Bft) O-NO 67 -4,7 C -3,7 C 4,6 km/h (1 Bft)
05.12.2019 13:28 14,0 C -3,7 C 2,4 C 65 % 93 % 1018,8 hPa 0,0 l/m 4,0 km/h (1 Bft) NO 45 -4,7 C -3,7 C 3,7 km/h (1 Bft)
05.12.2019 13:26 14,0 C -3,7 C 2,4 C 65 % 93 % 1018,8 hPa 0,0 l/m 4,2 km/h (1 Bft) O-NO 67 -4,7 C -3,7 C 3,9 km/h (1 Bft)
05.12.2019 13:24 13,8 C -3,7 C 2,4 C 65 % 93 % 1018,8 hPa 0,0 l/m 4,5 km/h (1 Bft) O-NO 67 -4,7 C -3,7 C 6,2 km/h (2 Bft)
05.12.2019 13:22 14,0 C -3,5 C 2,4 C 65 % 93 % 1018,8 hPa 0,0 l/m 4,5 km/h (1 Bft) NO 45 -4,5 C -3,5 C 7,0 km/h (2 Bft)
05.12.2019 13:20 14,0 C -3,5 C 2,4 C 65 % 93 % 1018,8 hPa 0,0 l/m 4,5 km/h (1 Bft) NO 45 -4,5 C -3,5 C 7,7 km/h (2 Bft)
05.12.2019 13:18 14,0 C -3,5 C 2,4 C 65 % 93 % 1018,8 hPa 0,0 l/m 4,7 km/h (1 Bft) N-NO 22 -4,5 C -5,4 C 4,4 km/h (1 Bft)
05.12.2019 13:16 13,8 C -3,5 C 2,4 C 65 % 93 % 1018,8 hPa 0,0 l/m 4,7 km/h (1 Bft) N-NO 22 -4,5 C -5,4 C 6,6 km/h (2 Bft)
05.12.2019 13:14 14,0 C -3,5 C 2,3 C 65 % 93 % 1018,8 hPa 0,0 l/m 4,5 km/h (1 Bft) NO 45 -4,5 C -3,5 C 4,2 km/h (1 Bft)
05.12.2019 13:12 13,8 C -3,7 C 2,3 C 65 % 93 % 1018,8 hPa 0,0 l/m 4,5 km/h (1 Bft) N-NO 22 -4,7 C -3,7 C 6,2 km/h (2 Bft)
05.12.2019 13:10 14,0 C -3,5 C 2,4 C 65 % 93 % 1018,8 hPa 0,0 l/m 3,2 km/h (1 Bft) N-NO 22 -4,5 C -3,5 C 6,6 km/h (2 Bft)
05.12.2019 13:08 13,8 C -3,5 C 2,4 C 65 % 93 % 1018,8 hPa 0,0 l/m 2,9 km/h (1 Bft) N-NO 22 -4,5 C -3,5 C 6,0 km/h (2 Bft)
05.12.2019 13:06 14,0 C -3,5 C 2,4 C 65 % 93 % 1018,8 hPa 0,0 l/m 2,6 km/h (1 Bft) N-NO 22 -4,5 C -3,5 C 6,0 km/h (2 Bft)
05.12.2019 13:04 14,0 C -3,4 C 2,6 C 65 % 93 % 1018,8 hPa 0,0 l/m 2,3 km/h (1 Bft) N-NO 22 -4,4 C -3,4 C 6,4 km/h (2 Bft)
05.12.2019 13:02 14,0 C -3,4 C 2,6 C 65 % 93 % 1018,8 hPa 0,0 l/m 2,1 km/h (1 Bft) N-NO 22 -4,4 C -3,4 C 7,1 km/h (2 Bft)
05.12.2019 13:00 14,0 C -3,5 C 2,4 C 65 % 93 % 1018,8 hPa 0,0 l/m 2,6 km/h (1 Bft) O-SO 112 -4,5 C -3,5 C 0,0 km/h (0 Bft)
05.12.2019 12:58 14,0 C -3,5 C 2,4 C 65 % 93 % 1018,8 hPa 0,0 l/m 2,9 km/h (1 Bft) O-SO 112 -4,5 C -3,5 C 3,7 km/h (1 Bft)
05.12.2019 12:56 14,0 C -3,4 C 2,4 C 65 % 93 % 1018,8 hPa 0,0 l/m 2,6 km/h (1 Bft) NO 45 -4,4 C -3,4 C 0,0 km/h (0 Bft)
05.12.2019 12:54 13,8 C -3,5 C 2,4 C 65 % 93 % 1018,8 hPa 0,0 l/m 2,6 km/h (1 Bft) O-SO 112 -4,5 C -3,5 C 4,1 km/h (1 Bft)
05.12.2019 12:52 14,0 C -3,5 C 2,4 C 65 % 93 % 1018,8 hPa 0,0 l/m 2,6 km/h (1 Bft) O-SO 112 -4,5 C -3,5 C 4,8 km/h (1 Bft)
05.12.2019 12:50 14,0 C -3,4 C 2,4 C 65 % 93 % 1018,8 hPa 0,0 l/m 2,6 km/h (1 Bft) O-SO 112 -4,4 C -3,4 C 4,4 km/h (1 Bft)
05.12.2019 12:48 14,0 C -3,4 C 2,4 C 65 % 93 % 1018,9 hPa 0,0 l/m 2,7 km/h (1 Bft) O-NO 67 -4,4 C -3,4 C 4,6 km/h (1 Bft)
05.12.2019 12:46 14,0 C -3,4 C 2,4 C 65 % 93 % 1018,9 hPa 0,0 l/m 2,9 km/h (1 Bft) O 90 -4,4 C -3,4 C 2,9 km/h (1 Bft)
05.12.2019 12:44 14,0 C -3,4 C 2,3 C 65 % 93 % 1018,9 hPa 0,0 l/m 3,1 km/h (1 Bft) O-SO 112 -4,4 C -3,4 C 3,1 km/h (1 Bft)
05.12.2019 12:42 14,0 C -3,4 C 2,4 C 65 % 93 % 1018,9 hPa 0,0 l/m 2,9 km/h (1 Bft) O 90 -4,4 C -3,4 C 2,9 km/h (1 Bft)
05.12.2019 12:40 14,0 C -3,5 C 2,4 C 65 % 93 % 1018,9 hPa 0,0 l/m 2,7 km/h (1 Bft) O-NO 67 -4,5 C -3,5 C 3,5 km/h (1 Bft)
05.12.2019 12:38 14,0 C -3,4 C 2,4 C 65 % 93 % 1018,9 hPa 0,0 l/m 2,3 km/h (1 Bft) NO 45 -4,4 C -3,4 C 5,8 km/h (2 Bft)
05.12.2019 12:36 14,0 C -3,4 C 2,4 C 65 % 93 % 1018,9 hPa 0,0 l/m 2,3 km/h (1 Bft) O-NO 67 -4,4 C -3,4 C 4,8 km/h (1 Bft)
05.12.2019 12:34 14,0 C -3,5 C 2,3 C 65 % 93 % 1018,9 hPa 0,0 l/m 2,3 km/h (1 Bft) NO 45 -4,5 C -3,5 C 2,9 km/h (1 Bft)
05.12.2019 12:32 14,0 C -3,5 C 2,3 C 65 % 93 % 1018,9 hPa 0,0 l/m 2,4 km/h (1 Bft) O-NO 67 -4,5 C -3,5 C 3,1 km/h (1 Bft)
05.12.2019 12:30 14,0 C -3,4 C 2,3 C 65 % 93 % 1018,9 hPa 0,0 l/m 2,6 km/h (1 Bft) O-NO 67 -4,4 C -3,4 C 3,3 km/h (1 Bft)
05.12.2019 12:28 14,0 C -3,4 C 2,3 C 65 % 93 % 1019,0 hPa 0,0 l/m 2,7 km/h (1 Bft) O 90 -4,4 C -3,4 C 2,5 km/h (1 Bft)
05.12.2019 12:26 14,0 C -3,5 C 2,2 C 65 % 93 % 1019,0 hPa 0,0 l/m 2,9 km/h (1 Bft) O-SO 112 -4,5 C -3,5 C 4,6 km/h (1 Bft)
05.12.2019 12:24 13,8 C -3,5 C 2,3 C 65 % 93 % 1019,0 hPa 0,0 l/m 2,6 km/h (1 Bft) S-SO 157 -4,5 C -3,5 C 5,0 km/h (1 Bft)
05.12.2019 12:22 14,0 C -3,7 C 2,3 C 65 % 93 % 1019,0 hPa 0,0 l/m 2,6 km/h (1 Bft) S-SO 157 -4,7 C -3,7 C 4,6 km/h (1 Bft)
05.12.2019 12:20 14,0 C -3,7 C 2,2 C 65 % 93 % 1019,0 hPa 0,0 l/m 2,7 km/h (1 Bft) O-NO 67 -4,7 C -3,7 C 5,4 km/h (1 Bft)
05.12.2019 12:18 14,0 C -3,5 C 2,2 C 65 % 93 % 1019,0 hPa 0,0 l/m 2,6 km/h (1 Bft) O-NO 67 -4,5 C -3,5 C 5,4 km/h (1 Bft)
05.12.2019 12:16 14,0 C -3,7 C 2,2 C 65 % 93 % 1019,0 hPa 0,0 l/m 2,6 km/h (1 Bft) O-SO 112 -4,7 C -3,7 C 2,5 km/h (1 Bft)
05.12.2019 12:14 13,8 C -3,7 C 2,2 C 65 % 93 % 1019,0 hPa 0,0 l/m 2,6 km/h (1 Bft) O-SO 112 -4,7 C -3,7 C 2,3 km/h (1 Bft)
05.12.2019 12:12 13,8 C -3,8 C 2,1 C 65 % 93 % 1019,0 hPa 0,0 l/m 2,4 km/h (1 Bft) SO 135 -4,8 C -3,8 C 4,6 km/h (1 Bft)
05.12.2019 12:10 13,8 C -3,8 C 2,1 C 65 % 93 % 1019,0 hPa 0,0 l/m 2,4 km/h (1 Bft) SO 135 -4,8 C -3,8 C 4,6 km/h (1 Bft)
05.12.2019 12:08 14,0 C -3,8 C 2,1 C 65 % 93 % 1019,1 hPa 0,0 l/m 2,4 km/h (1 Bft) SO 135 -4,8 C -3,8 C 4,6 km/h (1 Bft)
05.12.2019 12:06 13,8 C -3,8 C 2,1 C 65 % 93 % 1019,1 hPa 0,0 l/m 2,4 km/h (1 Bft) SO 135 -4,8 C -3,8 C 4,6 km/h (1 Bft)
05.12.2019 12:04 13,8 C -3,8 C 2,1 C 65 % 93 % 1019,1 hPa 0,0 l/m 2,4 km/h (1 Bft) SO 135 -4,8 C -3,8 C 4,6 km/h (1 Bft)
05.12.2019 12:02 14,0 C -3,8 C 2,1 C 65 % 93 % 1019,1 hPa 0,0 l/m 2,4 km/h (1 Bft) SO 135 -4,8 C -3,8 C 4,6 km/h (1 Bft)
05.12.2019 12:00 14,0 C -3,8 C 2,1 C 65 % 93 % 1019,1 hPa 0,0 l/m 2,6 km/h (1 Bft) SO 135 -4,8 C -3,8 C 4,6 km/h (1 Bft)
05.12.2019 11:58 14,0 C -3,8 C 2,1 C 65 % 93 % 1019,1 hPa 0,0 l/m 3,1 km/h (1 Bft) O-SO 112 -4,8 C -3,8 C 2,7 km/h (1 Bft)
05.12.2019 11:56 14,0 C -3,8 C 2,1 C 65 % 93 % 1019,1 hPa 0,0 l/m 3,4 km/h (1 Bft) O-NO 67 -4,8 C -3,8 C 4,4 km/h (1 Bft)
05.12.2019 11:54 14,0 C -3,8 C 2,1 C 65 % 93 % 1019,1 hPa 0,0 l/m 3,7 km/h (1 Bft) O-SO 112 -4,8 C -3,8 C 2,7 km/h (1 Bft)
05.12.2019 11:52 14,0 C -3,8 C 2,1 C 65 % 93 % 1019,1 hPa 0,0 l/m 3,7 km/h (1 Bft) O-SO 112 -4,8 C -3,8 C 2,7 km/h (1 Bft)
05.12.2019 11:50 14,0 C -3,7 C 2,0 C 65 % 93 % 1019,1 hPa 0,0 l/m 3,7 km/h (1 Bft) O-SO 112 -4,7 C -3,7 C 4,8 km/h (1 Bft)
05.12.2019 11:48 14,0 C -3,7 C 2,0 C 65 % 93 % 1019,2 hPa 0,0 l/m 3,5 km/h (1 Bft) O-SO 112 -4,7 C -3,7 C 3,7 km/h (1 Bft)
05.12.2019 11:46 14,0 C -3,7 C 2,0 C 65 % 93 % 1019,2 hPa 0,0 l/m 3,5 km/h (1 Bft) O-SO 112 -4,7 C -3,7 C 5,8 km/h (2 Bft)
05.12.2019 11:44 13,8 C -3,7 C 2,0 C 65 % 93 % 1019,2 hPa 0,0 l/m 3,4 km/h (1 Bft) O-SO 112 -4,7 C -3,7 C 6,4 km/h (2 Bft)
05.12.2019 11:42 14,0 C -3,7 C 2,0 C 65 % 93 % 1019,2 hPa 0,0 l/m 3,5 km/h (1 Bft) O 90 -4,7 C -3,7 C 3,5 km/h (1 Bft)
05.12.2019 11:40 14,0 C -3,8 C 2,0 C 65 % 93 % 1019,2 hPa 0,0 l/m 3,7 km/h (1 Bft) SO 135 -4,8 C -3,8 C 3,7 km/h (1 Bft)
05.12.2019 11:38 14,0 C -3,7 C 2,0 C 65 % 93 % 1019,2 hPa 0,0 l/m 3,4 km/h (1 Bft) O 90 -4,7 C -3,7 C 4,8 km/h (1 Bft)
05.12.2019 11:36 14,0 C -3,7 C 2,0 C 65 % 93 % 1019,2 hPa 0,0 l/m 3,2 km/h (1 Bft) O-NO 67 -4,7 C -3,7 C 3,7 km/h (1 Bft)
05.12.2019 11:34 14,0 C -3,8 C 2,0 C 65 % 93 % 1019,2 hPa 0,0 l/m 3,2 km/h (1 Bft) O-NO 67 -4,8 C -3,8 C 3,7 km/h (1 Bft)
05.12.2019 11:32 14,0 C -3,8 C 2,0 C 65 % 93 % 1019,2 hPa 0,0 l/m 2,9 km/h (1 Bft) O-NO 67 -4,8 C -3,8 C 6,0 km/h (2 Bft)
05.12.2019 11:30 13,8 C -3,7 C 2,0 C 65 % 93 % 1019,2 hPa 0,0 l/m 2,7 km/h (1 Bft) O-SO 112 -4,7 C -3,7 C 3,7 km/h (1 Bft)
05.12.2019 11:28 13,8 C -3,5 C 2,0 C 65 % 93 % 1019,2 hPa 0,0 l/m 3,1 km/h (1 Bft) O 90 -4,5 C -3,5 C 2,1 km/h (1 Bft)
05.12.2019 11:26 14,0 C -3,7 C 2,0 C 65 % 93 % 1019,2 hPa 0,0 l/m 3,4 km/h (1 Bft) O-SO 112 -4,7 C -3,7 C 4,6 km/h (1 Bft)
05.12.2019 11:24 14,0 C -3,7 C 2,0 C 65 % 93 % 1019,2 hPa 0,0 l/m 3,4 km/h (1 Bft) O-NO 67 -4,7 C -3,7 C 4,2 km/h (1 Bft)
05.12.2019 11:22 14,0 C -3,7 C 1,8 C 65 % 93 % 1019,2 hPa 0,0 l/m 3,2 km/h (1 Bft) O-SO 112 -4,7 C -3,7 C 3,1 km/h (1 Bft)
05.12.2019 11:20 14,0 C -3,8 C 1,8 C 65 % 93 % 1019,2 hPa 0,0 l/m 3,4 km/h (1 Bft) O-NO 67 -4,8 C -3,8 C 2,9 km/h (1 Bft)
05.12.2019 11:18 14,0 C -3,5 C 1,8 C 65 % 93 % 1019,2 hPa 0,0 l/m 3,4 km/h (1 Bft) NO 45 -4,5 C -3,5 C 7,9 km/h (2 Bft)
05.12.2019 11:16 13,8 C -3,7 C 1,8 C 65 % 93 % 1019,2 hPa 0,0 l/m 2,9 km/h (1 Bft) O-NO 67 -4,7 C -3,7 C 5,2 km/h (1 Bft)
05.12.2019 11:14 13,8 C -3,5 C 1,8 C 65 % 93 % 1019,2 hPa 0,0 l/m 3,1 km/h (1 Bft) O-NO 67 -4,5 C -3,5 C 4,2 km/h (1 Bft)
05.12.2019 11:12 13,8 C -3,7 C 1,8 C 65 % 93 % 1019,2 hPa 0,0 l/m 3,2 km/h (1 Bft) O-SO 112 -4,7 C -3,7 C 2,9 km/h (1 Bft)
05.12.2019 11:10 14,0 C -3,7 C 1,8 C 65 % 93 % 1019,2 hPa 0,0 l/m 3,2 km/h (1 Bft) O-NO 67 -4,7 C -3,7 C 5,6 km/h (1 Bft)
05.12.2019 11:08 14,0 C -3,7 C 1,8 C 65 % 93 % 1019,3 hPa 0,0 l/m 2,9 km/h (1 Bft) W-SW 247 -4,7 C -3,7 C 2,9 km/h (1 Bft)
05.12.2019 11:06 13,8 C -3,8 C 1,8 C 65 % 93 % 1019,3 hPa 0,0 l/m 3,1 km/h (1 Bft) O 90 -4,8 C -3,8 C 5,6 km/h (1 Bft)
05.12.2019 11:04 13,8 C -3,8 C 1,8 C 65 % 93 % 1019,3 hPa 0,0 l/m 2,7 km/h (1 Bft) O-SO 112 -4,8 C -3,8 C 5,8 km/h (2 Bft)
05.12.2019 11:02 14,0 C -3,7 C 1,8 C 65 % 93 % 1019,3 hPa 0,0 l/m 2,7 km/h (1 Bft) O 90 -4,7 C -3,7 C 5,4 km/h (1 Bft)
05.12.2019 11:00 13,8 C -3,7 C 1,8 C 65 % 93 % 1019,3 hPa 0,0 l/m 2,9 km/h (1 Bft) O-NO 67 -4,7 C -3,7 C 3,9 km/h (1 Bft)
05.12.2019 10:58 13,8 C -3,7 C 1,8 C 65 % 93 % 1019,3 hPa 0,0 l/m 3,4 km/h (1 Bft) O-SO 112 -4,7 C -3,7 C 3,1 km/h (1 Bft)
05.12.2019 10:56 13,8 C -3,8 C 1,8 C 65 % 93 % 1019,3 hPa 0,0 l/m 3,5 km/h (1 Bft) SO 135 -4,8 C -3,8 C 3,7 km/h (1 Bft)
05.12.2019 10:54 13,8 C -3,8 C 1,8 C 65 % 93 % 1019,3 hPa 0,0 l/m 3,5 km/h (1 Bft) O-SO 112 -4,8 C -3,8 C 3,1 km/h (1 Bft)
05.12.2019 10:52 13,8 C -3,7 C 1,8 C 65 % 93 % 1019,3 hPa 0,0 l/m 3,5 km/h (1 Bft) O-NO 67 -4,7 C -3,7 C 4,6 km/h (1 Bft)
05.12.2019 10:50 13,8 C -3,8 C 1,7 C 65 % 93 % 1019,3 hPa 0,0 l/m 3,5 km/h (1 Bft) O-SO 112 -4,8 C -3,8 C 5,6 km/h (1 Bft)
05.12.2019 10:48 13,8 C -3,9 C 1,7 C 65 % 93 % 1019,5 hPa 0,0 l/m 3,5 km/h (1 Bft) NO 45 -4,9 C -3,9 C 5,8 km/h (2 Bft)
05.12.2019 10:46 14,0 C -3,9 C 1,7 C 65 % 93 % 1019,5 hPa 0,0 l/m 3,5 km/h (1 Bft) NO 45 -4,9 C -3,9 C 2,7 km/h (1 Bft)
05.12.2019 10:44 13,8 C -3,9 C 1,7 C 65 % 93 % 1019,5 hPa 0,0 l/m 3,9 km/h (1 Bft) O-NO 67 -4,9 C -3,9 C 3,1 km/h (1 Bft)
05.12.2019 10:42 13,8 C -3,9 C 1,7 C 65 % 93 % 1019,5 hPa 0,0 l/m 4,2 km/h (1 Bft) O-NO 67 -4,9 C -3,9 C 5,0 km/h (1 Bft)
05.12.2019 10:40 13,8 C -3,9 C 1,7 C 65 % 93 % 1019,5 hPa 0,0 l/m 4,3 km/h (1 Bft) O-NO 67 -4,9 C -3,9 C 6,0 km/h (2 Bft)
05.12.2019 10:38 13,8 C -4,1 C 1,7 C 65 % 93 % 1019,5 hPa 0,0 l/m 3,5 km/h (1 Bft) O-NO 67 -5,1 C -4,1 C 6,0 km/h (2 Bft)
05.12.2019 10:36 13,8 C -4,1 C 1,7 C 65 % 93 % 1019,5 hPa 0,0 l/m 3,1 km/h (1 Bft) O-NO 67 -5,1 C -4,1 C 6,0 km/h (2 Bft)
05.12.2019 10:34 14,0 C -3,9 C 1,7 C 65 % 93 % 1019,5 hPa 0,0 l/m 2,9 km/h (1 Bft) O-NO 67 -4,9 C -3,9 C 5,8 km/h (2 Bft)
05.12.2019 10:32 14,0 C -3,9 C 1,7 C 65 % 93 % 1019,5 hPa 0,0 l/m 3,1 km/h (1 Bft) NO 45 -4,9 C -3,9 C 5,6 km/h (1 Bft)
05.12.2019 10:30 13,8 C -3,8 C 1,7 C 65 % 93 % 1019,5 hPa 0,0 l/m 3,1 km/h (1 Bft) O-NO 67 -4,8 C -3,8 C 3,3 km/h (1 Bft)
05.12.2019 10:28 13,8 C -3,9 C 1,7 C 65 % 93 % 1019,6 hPa 0,0 l/m 3,4 km/h (1 Bft) O-NO 67 -4,9 C -3,9 C 0,0 km/h (0 Bft)
05.12.2019 10:26 13,8 C -3,9 C 1,7 C 65 % 93 % 1019,6 hPa 0,0 l/m 4,5 km/h (1 Bft) O-NO 67 -4,9 C -3,9 C 3,9 km/h (1 Bft)
05.12.2019 10:24 13,8 C -3,9 C 1,7 C 65 % 93 % 1019,6 hPa 0,0 l/m 5,0 km/h (1 Bft) O-SO 112 -4,9 C -6,0 C 4,1 km/h (1 Bft)
05.12.2019 10:22 13,8 C -3,9 C 1,7 C 65 % 93 % 1019,6 hPa 0,0 l/m 4,7 km/h (1 Bft) O-NO 67 -4,9 C -5,8 C 7,1 km/h (2 Bft)
05.12.2019 10:20 13,8 C -4,1 C 1,7 C 65 % 93 % 1019,6 hPa 0,0 l/m 4,7 km/h (1 Bft) NO 45 -5,1 C -6,1 C 6,4 km/h (2 Bft)
05.12.2019 10:18 14,0 C -4,1 C 1,7 C 65 % 93 % 1019,6 hPa 0,0 l/m 4,5 km/h (1 Bft) O-NO 67 -5,1 C -4,1 C 5,4 km/h (1 Bft)
05.12.2019 10:16 13,8 C -3,9 C 1,7 C 65 % 93 % 1019,6 hPa 0,0 l/m 4,3 km/h (1 Bft) O-NO 67 -4,9 C -3,9 C 7,5 km/h (2 Bft)
05.12.2019 10:14 13,8 C -4,1 C 1,7 C 65 % 93 % 1019,6 hPa 0,0 l/m 4,0 km/h (1 Bft) O-NO 67 -5,1 C -4,1 C 7,1 km/h (2 Bft)
05.12.2019 10:12 13,8 C -4,1 C 1,7 C 65 % 93 % 1019,6 hPa 0,0 l/m 4,0 km/h (1 Bft) O-NO 67 -5,1 C -4,1 C 3,5 km/h (1 Bft)
05.12.2019 10:10 13,8 C -4,1 C 1,7 C 65 % 93 % 1019,6 hPa 0,0 l/m 4,3 km/h (1 Bft) O-SO 112 -5,1 C -4,1 C 6,4 km/h (2 Bft)
05.12.2019 10:08 14,0 C -4,1 C 1,7 C 65 % 93 % 1019,7 hPa 0,0 l/m 3,9 km/h (1 Bft) SO 135 -5,1 C -4,1 C 5,4 km/h (1 Bft)
05.12.2019 10:06 13,8 C -4,1 C 1,7 C 65 % 93 % 1019,7 hPa 0,0 l/m 3,9 km/h (1 Bft) O 90 -5,1 C -4,1 C 7,1 km/h (2 Bft)
05.12.2019 10:04 13,8 C -4,1 C 1,7 C 65 % 93 % 1019,7 hPa 0,0 l/m 3,5 km/h (1 Bft) O-SO 112 -5,1 C -4,1 C 10,0 km/h (2 Bft)
05.12.2019 10:02 13,8 C -3,9 C 1,7 C 65 % 93 % 1019,7 hPa 0,0 l/m 3,2 km/h (1 Bft) O-NO 67 -4,9 C -3,9 C 6,2 km/h (2 Bft)
05.12.2019 10:00 13,8 C -3,8 C 1,7 C 65 % 93 % 1019,7 hPa 0,0 l/m 3,2 km/h (1 Bft) O-SO 112 -4,8 C -3,8 C 7,5 km/h (2 Bft)
05.12.2019 09:58 13,8 C -3,9 C 1,7 C 65 % 93 % 1019,7 hPa 0,0 l/m 3,4 km/h (1 Bft) O-SO 112 -4,9 C -3,9 C 3,1 km/h (1 Bft)
05.12.2019 09:56 14,0 C -3,9 C 1,6 C 65 % 93 % 1019,7 hPa 0,0 l/m 3,7 km/h (1 Bft) SO 135 -4,9 C -3,9 C 4,2 km/h (1 Bft)
05.12.2019 09:54 13,8 C -3,9 C 1,6 C 65 % 93 % 1019,7 hPa 0,0 l/m 3,9 km/h (1 Bft) O-NO 67 -4,9 C -3,9 C 4,2 km/h (1 Bft)
05.12.2019 09:52 13,8 C -4,1 C 1,6 C 65 % 93 % 1019,7 hPa 0,0 l/m 4,0 km/h (1 Bft) NO 45 -5,1 C -4,1 C 4,2 km/h (1 Bft)
05.12.2019 09:50 13,8 C -3,9 C 1,6 C 65 % 93 % 1019,7 hPa 0,0 l/m 4,0 km/h (1 Bft) O 90 -4,9 C -3,9 C 6,0 km/h (2 Bft)
05.12.2019 09:48 13,8 C -4,1 C 1,6 C 65 % 93 % 1019,5 hPa 0,0 l/m 4,3 km/h (1 Bft) O-SO 112 -5,1 C -4,1 C 6,2 km/h (2 Bft)
05.12.2019 09:46 14,0 C -4,1 C 1,6 C 65 % 93 % 1019,5 hPa 0,0 l/m 4,3 km/h (1 Bft) SO 135 -5,1 C -4,1 C 6,0 km/h (2 Bft)
05.12.2019 09:44 13,8 C -4,1 C 1,6 C 65 % 93 % 1019,5 hPa 0,0 l/m 3,9 km/h (1 Bft) O 90 -5,1 C -4,1 C 6,4 km/h (2 Bft)
05.12.2019 09:42 14,0 C -4,1 C 1,6 C 65 % 93 % 1019,5 hPa 0,0 l/m 3,9 km/h (1 Bft) O-SO 112 -5,1 C -4,1 C 5,8 km/h (2 Bft)
05.12.2019 09:40 14,0 C -4,1 C 1,6 C 65 % 93 % 1019,5 hPa 0,0 l/m 3,9 km/h (1 Bft) O 90 -5,1 C -4,1 C 7,0 km/h (2 Bft)
05.12.2019 09:38 13,8 C -4,1 C 1,6 C 65 % 93 % 1019,5 hPa 0,0 l/m 3,7 km/h (1 Bft) O-SO 112 -5,1 C -4,1 C 7,1 km/h (2 Bft)
05.12.2019 09:36 14,0 C -4,1 C 1,6 C 65 % 93 % 1019,5 hPa 0,0 l/m 3,2 km/h (1 Bft) SO 135 -5,1 C -4,1 C 7,7 km/h (2 Bft)
05.12.2019 09:34 13,8 C -4,1 C 1,6 C 65 % 93 % 1019,5 hPa 0,0 l/m 3,1 km/h (1 Bft) O-NO 67 -5,1 C -4,1 C 4,2 km/h (1 Bft)
05.12.2019 09:32 13,8 C -4,1 C 1,6 C 65 % 93 % 1019,5 hPa 0,0 l/m 3,2 km/h (1 Bft) O-SO 112 -5,1 C -4,1 C 3,9 km/h (1 Bft)
05.12.2019 09:30 14,0 C -3,8 C 1,6 C 65 % 93 % 1019,5 hPa 0,0 l/m 3,1 km/h (1 Bft) O-SO 112 -4,8 C -3,8 C 6,2 km/h (2 Bft)
05.12.2019 09:28 13,8 C -3,8 C 1,6 C 65 % 93 % 1019,4 hPa 0,0 l/m 2,9 km/h (1 Bft) SO 135 -4,8 C -3,8 C 4,6 km/h (1 Bft)
05.12.2019 09:26 14,0 C -3,9 C 1,6 C 65 % 93 % 1019,4 hPa 0,0 l/m 3,2 km/h (1 Bft) O 90 -4,9 C -3,9 C 4,1 km/h (1 Bft)
05.12.2019 09:24 14,0 C -3,9 C 1,6 C 65 % 93 % 1019,4 hPa 0,0 l/m 3,2 km/h (1 Bft) O-SO 112 -4,9 C -3,9 C 2,7 km/h (1 Bft)
05.12.2019 09:22 14,0 C -3,9 C 1,6 C 65 % 93 % 1019,4 hPa 0,0 l/m 3,4 km/h (1 Bft) NO 45 -4,9 C -3,9 C 5,0 km/h (1 Bft)
05.12.2019 09:20 13,8 C -3,9 C 1,6 C 65 % 93 % 1019,4 hPa 0,0 l/m 3,5 km/h (1 Bft) SO 135 -4,9 C -3,9 C 5,4 km/h (1 Bft)
05.12.2019 09:18 13,8 C -3,9 C 1,6 C 65 % 93 % 1019,4 hPa 0,0 l/m 3,7 km/h (1 Bft) O-NO 67 -4,9 C -3,9 C 3,5 km/h (1 Bft)
05.12.2019 09:16 13,8 C -3,9 C 1,6 C 65 % 93 % 1019,4 hPa 0,0 l/m 3,7 km/h (1 Bft) SO 135 -4,9 C -3,9 C 7,5 km/h (2 Bft)
05.12.2019 09:14 13,8 C -3,9 C 1,5 C 65 % 93 % 1019,4 hPa 0,0 l/m 3,9 km/h (1 Bft) O 90 -4,9 C -3,9 C 4,2 km/h (1 Bft)
05.12.2019 09:12 13,8 C -3,9 C 1,6 C 65 % 93 % 1019,4 hPa 0,0 l/m 4,0 km/h (1 Bft) O-SO 112 -4,9 C -3,9 C 6,8 km/h (2 Bft)
05.12.2019 09:10 14,0 C -3,9 C 1,5 C 65 % 93 % 1019,4 hPa 0,0 l/m 3,7 km/h (1 Bft) SO 135 -4,9 C -3,9 C 5,4 km/h (1 Bft)
05.12.2019 09:08 13,8 C -3,9 C 1,5 C 65 % 93 % 1019,3 hPa 0,0 l/m 3,9 km/h (1 Bft) SO 135 -4,9 C -3,9 C 6,8 km/h (2 Bft)
05.12.2019 09:06 13,8 C -3,9 C 1,6 C 65 % 93 % 1019,3 hPa 0,0 l/m 3,7 km/h (1 Bft) O-SO 112 -4,9 C -3,9 C 4,4 km/h (1 Bft)
05.12.2019 09:04 14,0 C -3,9 C 1,6 C 65 % 93 % 1019,3 hPa 0,0 l/m 3,9 km/h (1 Bft) SO 135 -4,9 C -3,9 C 6,0 km/h (2 Bft)
05.12.2019 09:02 13,8 C -3,9 C 1,6 C 65 % 93 % 1019,3 hPa 0,0 l/m 3,5 km/h (1 Bft) O-SO 112 -4,9 C -3,9 C 3,5 km/h (1 Bft)
05.12.2019 09:00 13,8 C -3,9 C 1,5 C 65 % 93 % 1019,3 hPa 0,0 l/m 3,9 km/h (1 Bft) O 90 -4,9 C -3,9 C 3,1 km/h (1 Bft)
05.12.2019 08:58 14,0 C -3,9 C 1,5 C 65 % 93 % 1019,3 hPa 0,0 l/m 4,3 km/h (1 Bft) O-NO 67 -4,9 C -3,9 C 7,3 km/h (2 Bft)
05.12.2019 08:56 13,8 C -3,9 C 1,5 C 65 % 93 % 1019,3 hPa 0,0 l/m 4,2 km/h (1 Bft) O-SO 112 -4,9 C -3,9 C 4,6 km/h (1 Bft)
05.12.2019 08:54 13,8 C -3,9 C 1,5 C 65 % 93 % 1019,3 hPa 0,0 l/m 4,3 km/h (1 Bft) O 90 -4,9 C -3,9 C 5,2 km/h (1 Bft)
05.12.2019 08:52 13,8 C -4,1 C 1,5 C 65 % 93 % 1019,3 hPa 0,0 l/m 4,7 km/h (1 Bft) O-NO 67 -5,1 C -6,1 C 2,9 km/h (1 Bft)
05.12.2019 08:50 13,8 C -4,1 C 1,5 C 65 % 93 % 1019,3 hPa 0,0 l/m 4,8 km/h (1 Bft) O-NO 67 -5,1 C -6,1 C 6,2 km/h (2 Bft)
05.12.2019 08:48 13,8 C -4,1 C 1,5 C 65 % 93 % 1019,2 hPa 0,0 l/m 4,2 km/h (1 Bft) O-NO 67 -5,1 C -4,1 C 11,4 km/h (2 Bft)
05.12.2019 08:46 13,8 C -4,1 C 1,5 C 65 % 93 % 1019,2 hPa 0,0 l/m 3,9 km/h (1 Bft) O-SO 112 -5,1 C -4,1 C 8,5 km/h (2 Bft)
05.12.2019 08:44 13,8 C -4,1 C 1,5 C 65 % 93 % 1019,2 hPa 0,0 l/m 3,9 km/h (1 Bft) O-SO 112 -5,1 C -4,1 C 8,5 km/h (2 Bft)
05.12.2019 08:42 14,0 C -4,1 C 1,5 C 65 % 93 % 1019,2 hPa 0,0 l/m 3,4 km/h (1 Bft) O-NO 67 -5,1 C -4,1 C 4,6 km/h (1 Bft)
05.12.2019 08:40 13,8 C -4,1 C 1,5 C 65 % 93 % 1019,2 hPa 0,0 l/m 2,6 km/h (1 Bft) NO 45 -5,1 C -4,1 C 7,7 km/h (2 Bft)
05.12.2019 08:38 13,8 C -4,1 C 1,3 C 65 % 93 % 1019,2 hPa 0,0 l/m 2,7 km/h (1 Bft) O-SO 112 -5,1 C -4,1 C 3,5 km/h (1 Bft)
05.12.2019 08:36 13,8 C -3,9 C 1,3 C 65 % 93 % 1019,2 hPa 0,0 l/m 3,1 km/h (1 Bft) SO 135 -4,9 C -3,9 C 7,3 km/h (2 Bft)
05.12.2019 08:34 14,0 C -3,9 C 1,3 C 65 % 93 % 1019,2 hPa 0,0 l/m 3,5 km/h (1 Bft) O-SO 112 -4,9 C -3,9 C 3,9 km/h (1 Bft)
05.12.2019 08:32 14,0 C -4,1 C 1,3 C 65 % 93 % 1019,2 hPa 0,0 l/m 3,7 km/h (1 Bft) O-SO 112 -5,1 C -4,1 C 0,0 km/h (0 Bft)
05.12.2019 08:30 13,8 C -4,1 C 1,3 C 65 % 93 % 1019,2 hPa 0,0 l/m 4,0 km/h (1 Bft) O-SO 112 -5,1 C -4,1 C 3,9 km/h (1 Bft)
05.12.2019 08:28 13,8 C -4,1 C 1,3 C 65 % 93 % 1019,1 hPa 0,0 l/m 4,2 km/h (1 Bft) O-SO 112 -5,1 C -4,1 C 7,7 km/h (2 Bft)
05.12.2019 08:26 14,0 C -4,1 C 1,3 C 65 % 93 % 1019,1 hPa 0,0 l/m 4,0 km/h (1 Bft) O-SO 112 -5,1 C -4,1 C 6,8 km/h (2 Bft)
05.12.2019 08:24 14,0 C -4,1 C 1,3 C 65 % 93 % 1019,1 hPa 0,0 l/m 3,7 km/h (1 Bft) O-SO 112 -5,1 C -4,1 C 7,7 km/h (2 Bft)
05.12.2019 08:22 14,0 C -4,1 C 1,3 C 65 % 93 % 1019,1 hPa 0,0 l/m 3,5 km/h (1 Bft) O-SO 112 -5,1 C -4,1 C 3,3 km/h (1 Bft)
05.12.2019 08:20 14,0 C -4,1 C 1,3 C 65 % 93 % 1019,1 hPa 0,0 l/m 3,9 km/h (1 Bft) O-SO 112 -5,1 C -4,1 C 2,7 km/h (1 Bft)
05.12.2019 08:18 14,0 C -4,1 C 1,3 C 65 % 93 % 1019,1 hPa 0,0 l/m 4,2 km/h (1 Bft) O-NO 67 -5,1 C -4,1 C 6,4 km/h (2 Bft)
05.12.2019 08:16 14,0 C -4,1 C 1,3 C 65 % 93 % 1019,1 hPa 0,0 l/m 4,3 km/h (1 Bft) O-SO 112 -5,1 C -4,1 C 4,4 km/h (1 Bft)
05.12.2019 08:14 13,8 C -4,1 C 1,3 C 65 % 93 % 1019,1 hPa 0,0 l/m 4,3 km/h (1 Bft) O-SO 112 -5,1 C -4,1 C 4,1 km/h (1 Bft)
05.12.2019 08:12 14,0 C -4,1 C 1,3 C 65 % 93 % 1019,1 hPa 0,0 l/m 4,5 km/h (1 Bft) SO 135 -5,1 C -4,1 C 5,4 km/h (1 Bft)
05.12.2019 08:10 13,8 C -4,1 C 1,3 C 65 % 93 % 1019,1 hPa 0,0 l/m 4,5 km/h (1 Bft) O 90 -5,1 C -4,1 C 7,0 km/h (2 Bft)
05.12.2019 08:08 14,0 C -4,1 C 1,3 C 65 % 93 % 1018,9 hPa 0,0 l/m 4,2 km/h (1 Bft) O-SO 112 -5,1 C -4,1 C 6,2 km/h (2 Bft)
05.12.2019 08:06 14,0 C -4,1 C 1,3 C 65 % 93 % 1018,9 hPa 0,0 l/m 4,2 km/h (1 Bft) O-SO 112 -5,1 C -4,1 C 7,3 km/h (2 Bft)
05.12.2019 08:04 14,0 C -4,1 C 1,3 C 65 % 93 % 1018,9 hPa 0,0 l/m 4,3 km/h (1 Bft) O 90 -5,1 C -4,1 C 3,9 km/h (1 Bft)
05.12.2019 08:02 14,0 C -4,1 C 1,3 C 65 % 93 % 1018,9 hPa 0,0 l/m 4,0 km/h (1 Bft) O 90 -5,1 C -4,1 C 7,3 km/h (2 Bft)
05.12.2019 08:00 14,0 C -4,1 C 1,3 C 65 % 93 % 1018,9 hPa 0,0 l/m 3,7 km/h (1 Bft) O-NO 67 -5,1 C -4,1 C 5,8 km/h (2 Bft)
05.12.2019 07:58 14,0 C -4,1 C 1,3 C 65 % 93 % 1018,9 hPa 0,0 l/m 3,7 km/h (1 Bft) O-SO 112 -5,1 C -4,1 C 4,8 km/h (1 Bft)
05.12.2019 07:56 14,0 C -4,1 C 1,3 C 65 % 93 % 1018,9 hPa 0,0 l/m 3,7 km/h (1 Bft) O-NO 67 -5,1 C -4,1 C 3,7 km/h (1 Bft)
05.12.2019 07:54 14,0 C -4,1 C 1,3 C 65 % 93 % 1018,9 hPa 0,0 l/m 3,7 km/h (1 Bft) O-NO 67 -5,1 C -4,1 C 6,6 km/h (2 Bft)
05.12.2019 07:52 14,0 C -4,1 C 1,2 C 65 % 93 % 1018,9 hPa 0,0 l/m 3,7 km/h (1 Bft) O-SO 112 -5,1 C -4,1 C 4,1 km/h (1 Bft)
05.12.2019 07:50 14,0 C -4,1 C 1,2 C 65 % 93 % 1018,9 hPa 0,0 l/m 3,7 km/h (1 Bft) O-SO 112 -5,1 C -4,1 C 6,0 km/h (2 Bft)
05.12.2019 07:48 14,0 C -4,1 C 1,3 C 65 % 93 % 1018,8 hPa 0,0 l/m 3,5 km/h (1 Bft) O-SO 112 -5,1 C -4,1 C 4,6 km/h (1 Bft)
05.12.2019 07:46 14,0 C -4,1 C 1,2 C 65 % 93 % 1018,8 hPa 0,0 l/m 3,4 km/h (1 Bft) O-NO 67 -5,1 C -4,1 C 3,7 km/h (1 Bft)
05.12.2019 07:44 14,0 C -4,1 C 1,2 C 65 % 93 % 1018,8 hPa 0,0 l/m 3,5 km/h (1 Bft) O-SO 112 -5,1 C -4,1 C 5,6 km/h (1 Bft)
05.12.2019 07:42 14,0 C -3,9 C 1,2 C 65 % 93 % 1018,8 hPa 0,0 l/m 3,7 km/h (1 Bft) SO 135 -4,9 C -3,9 C 3,3 km/h (1 Bft)
05.12.2019 07:40 14,0 C -3,9 C 1,2 C 65 % 93 % 1018,8 hPa 0,0 l/m 4,0 km/h (1 Bft) SO 135 -4,9 C -3,9 C 3,7 km/h (1 Bft)
05.12.2019 07:38 14,0 C -4,1 C 1,2 C 65 % 93 % 1018,8 hPa 0,0 l/m 4,2 km/h (1 Bft) SO 135 -5,1 C -4,1 C 5,6 km/h (1 Bft)
05.12.2019 07:36 14,0 C -4,1 C 1,2 C 65 % 93 % 1018,8 hPa 0,0 l/m 4,5 km/h (1 Bft) O-SO 112 -5,1 C -4,1 C 4,6 km/h (1 Bft)
05.12.2019 07:34 13,8 C -4,1 C 1,2 C 65 % 93 % 1018,8 hPa 0,0 l/m 4,5 km/h (1 Bft) S-SO 157 -5,1 C -4,1 C 5,2 km/h (1 Bft)
05.12.2019 07:32 14,0 C -4,1 C 1,3 C 65 % 93 % 1018,8 hPa 0,0 l/m 3,9 km/h (1 Bft) O-SO 112 -5,1 C -4,1 C 5,6 km/h (1 Bft)
05.12.2019 07:30 14,0 C -4,1 C 1,3 C 65 % 93 % 1018,8 hPa 0,0 l/m 3,2 km/h (1 Bft) O-NO 67 -5,1 C -4,1 C 7,7 km/h (2 Bft)
05.12.2019 07:28 14,0 C -4,1 C 1,2 C 65 % 93 % 1018,6 hPa 0,0 l/m 2,7 km/h (1 Bft) O-SO 112 -5,1 C -4,1 C 6,0 km/h (2 Bft)
05.12.2019 07:26 14,0 C -3,9 C 1,3 C 65 % 93 % 1018,6 hPa 0,0 l/m 2,6 km/h (1 Bft) O-SO 112 -4,9 C -3,9 C 7,5 km/h (2 Bft)
05.12.2019 07:24 14,0 C -3,9 C 1,3 C 65 % 93 % 1018,6 hPa 0,0 l/m 2,4 km/h (1 Bft) O-SO 112 -4,9 C -3,9 C 6,0 km/h (2 Bft)
05.12.2019 07:22 14,0 C -3,9 C 1,3 C 65 % 93 % 1018,6 hPa 0,0 l/m 2,3 km/h (1 Bft) O 90 -4,9 C -3,9 C 4,6 km/h (1 Bft)
05.12.2019 07:20 14,0 C -3,9 C 1,2 C 65 % 93 % 1018,6 hPa 0,0 l/m 2,7 km/h (1 Bft) SO 135 -4,9 C -3,9 C 1,9 km/h (1 Bft)
05.12.2019 07:18 14,0 C -3,9 C 1,2 C 65 % 93 % 1018,6 hPa 0,0 l/m 3,5 km/h (1 Bft) O-SO 112 -4,9 C -3,9 C 3,1 km/h (1 Bft)
05.12.2019 07:16 14,0 C -3,9 C 1,2 C 65 % 93 % 1018,6 hPa 0,0 l/m 3,7 km/h (1 Bft) SO 135 -4,9 C -3,9 C 4,6 km/h (1 Bft)
05.12.2019 07:14 14,0 C -3,9 C 1,2 C 65 % 93 % 1018,6 hPa 0,0 l/m 3,9 km/h (1 Bft) SO 135 -4,9 C -3,9 C 3,7 km/h (1 Bft)
05.12.2019 07:12 14,0 C -4,1 C 1,2 C 65 % 93 % 1018,6 hPa 0,0 l/m 4,2 km/h (1 Bft) O-SO 112 -5,1 C -4,1 C 3,3 km/h (1 Bft)
05.12.2019 07:10 14,0 C -4,1 C 1,2 C 65 % 93 % 1018,6 hPa 0,0 l/m 4,2 km/h (1 Bft) O-SO 112 -5,1 C -4,1 C 5,8 km/h (2 Bft)
05.12.2019 07:08 14,0 C -4,1 C 1,2 C 65 % 93 % 1018,4 hPa 0,0 l/m 4,5 km/h (1 Bft) SO 135 -5,1 C -4,1 C 5,8 km/h (2 Bft)
05.12.2019 07:06 14,0 C -4,1 C 1,3 C 65 % 93 % 1018,4 hPa 0,0 l/m 4,5 km/h (1 Bft) SO 135 -5,1 C -4,1 C 4,6 km/h (1 Bft)
05.12.2019 07:04 14,0 C -4,1 C 1,3 C 65 % 93 % 1018,4 hPa 0,0 l/m 4,3 km/h (1 Bft) O-NO 67 -5,1 C -4,1 C 8,7 km/h (2 Bft)
05.12.2019 07:02 14,0 C -4,1 C 1,3 C 65 % 93 % 1018,4 hPa 0,0 l/m 4,0 km/h (1 Bft) O-NO 67 -5,1 C -4,1 C 5,8 km/h (2 Bft)
05.12.2019 07:00 14,0 C -4,1 C 1,3 C 65 % 93 % 1018,4 hPa 0,0 l/m 3,9 km/h (1 Bft) O-SO 112 -5,1 C -4,1 C 6,4 km/h (2 Bft)
05.12.2019 06:58 14,0 C -3,9 C 1,3 C 65 % 93 % 1018,4 hPa 0,0 l/m 3,5 km/h (1 Bft) O-NO 67 -4,9 C -3,9 C 9,5 km/h (2 Bft)
05.12.2019 06:56 14,0 C -3,9 C 1,2 C 65 % 93 % 1018,4 hPa 0,0 l/m 3,2 km/h (1 Bft) O-SO 112 -4,9 C -3,9 C 7,3 km/h (2 Bft)
05.12.2019 06:54 14,0 C -3,9 C 1,2 C 65 % 93 % 1018,4 hPa 0,0 l/m 3,2 km/h (1 Bft) O-SO 112 -4,9 C -3,9 C 4,1 km/h (1 Bft)
05.12.2019 06:52 14,0 C -3,9 C 1,2 C 65 % 93 % 1018,4 hPa 0,0 l/m 3,5 km/h (1 Bft) O-SO 112 -4,9 C -3,9 C 5,0 km/h (1 Bft)
05.12.2019 06:50 14,0 C -3,9 C 1,3 C 65 % 93 % 1018,4 hPa 0,0 l/m 3,9 km/h (1 Bft) O-SO 112 -4,9 C -3,9 C 5,4 km/h (1 Bft)
05.12.2019 06:48 14,0 C -3,9 C 1,3 C 65 % 93 % 1018,3 hPa 0,0 l/m 4,0 km/h (1 Bft) N-NO 22 -4,9 C -3,9 C 3,3 km/h (1 Bft)
05.12.2019 06:46 14,0 C -3,9 C 1,3 C 65 % 93 % 1018,3 hPa 0,0 l/m 4,5 km/h (1 Bft) O-NO 67 -4,9 C -3,9 C 4,8 km/h (1 Bft)
05.12.2019 06:44 14,0 C -4,1 C 1,2 C 65 % 93 % 1018,3 hPa 0,0 l/m 4,7 km/h (1 Bft) O-SO 112 -5,1 C -6,1 C 4,1 km/h (1 Bft)
05.12.2019 06:42 14,0 C -3,9 C 1,3 C 65 % 93 % 1018,3 hPa 0,0 l/m 5,1 km/h (1 Bft) O-NO 67 -4,9 C -6,1 C 7,1 km/h (2 Bft)
05.12.2019 06:40 13,9 C -3,9 C 1,3 C 65 % 93 % 1018,3 hPa 0,0 l/m 4,8 km/h (1 Bft) O-NO 67 -4,9 C -5,9 C 4,2 km/h (1 Bft)
05.12.2019 06:38 13,9 C -4,1 C 1,2 C 65 % 93 % 1018,3 hPa 0,0 l/m 5,0 km/h (1 Bft) O-SO 112 -5,1 C -6,2 C 4,2 km/h (1 Bft)
05.12.2019 06:36 14,0 C -4,1 C 1,2 C 65 % 93 % 1018,3 hPa 0,0 l/m 4,8 km/h (1 Bft) O-NO 67 -5,1 C -6,1 C 7,5 km/h (2 Bft)
05.12.2019 06:34 13,9 C -4,1 C 1,2 C 65 % 93 % 1018,3 hPa 0,0 l/m 4,3 km/h (1 Bft) O 90 -5,1 C -4,1 C 8,5 km/h (2 Bft)
05.12.2019 06:32 13,9 C -4,1 C 1,3 C 65 % 93 % 1018,3 hPa 0,0 l/m 4,2 km/h (1 Bft) O-SO 112 -5,1 C -4,1 C 9,5 km/h (2 Bft)
05.12.2019 06:30 13,9 C -3,9 C 1,3 C 65 % 93 % 1018,3 hPa 0,0 l/m 3,9 km/h (1 Bft) O-SO 112 -4,9 C -3,9 C 5,4 km/h (1 Bft)
05.12.2019 06:28 13,9 C -3,9 C 1,3 C 65 % 93 % 1018,2 hPa 0,0 l/m 3,9 km/h (1 Bft) SO 135 -4,9 C -3,9 C 5,6 km/h (1 Bft)
05.12.2019 06:26 13,9 C -3,9 C 1,3 C 65 % 93 % 1018,2 hPa 0,0 l/m 4,0 km/h (1 Bft) O-NO 67 -4,9 C -3,9 C 6,6 km/h (2 Bft)
05.12.2019 06:24 13,9 C -3,9 C 1,3 C 65 % 93 % 1018,2 hPa 0,0 l/m 4,3 km/h (1 Bft) NO 45 -4,9 C -3,9 C 3,3 km/h (1 Bft)
05.12.2019 06:22 13,9 C -3,9 C 1,3 C 65 % 93 % 1018,2 hPa 0,0 l/m 4,2 km/h (1 Bft) O-NO 67 -4,9 C -3,9 C 5,4 km/h (1 Bft)
05.12.2019 06:20 13,9 C -3,9 C 1,2 C 65 % 93 % 1018,2 hPa 0,0 l/m 3,5 km/h (1 Bft) O 90 -4,9 C -3,9 C 4,2 km/h (1 Bft)
05.12.2019 06:18 13,9 C -3,9 C 1,2 C 65 % 93 % 1018,2 hPa 0,0 l/m 3,9 km/h (1 Bft) O-NO 67 -4,9 C -3,9 C 4,6 km/h (1 Bft)
05.12.2019 06:16 13,9 C -3,9 C 1,2 C 65 % 93 % 1018,2 hPa 0,0 l/m 4,0 km/h (1 Bft) O-SO 112 -4,9 C -3,9 C 9,8 km/h (2 Bft)
05.12.2019 06:14 13,9 C -3,9 C 1,2 C 65 % 93 % 1018,2 hPa 0,0 l/m 3,4 km/h (1 Bft) O-SO 112 -4,9 C -3,9 C 6,6 km/h (2 Bft)
05.12.2019 06:12 13,9 C -3,9 C 1,3 C 65 % 93 % 1018,2 hPa 0,0 l/m 3,5 km/h (1 Bft) O-SO 112 -4,9 C -3,9 C 6,4 km/h (2 Bft)
05.12.2019 06:10 13,9 C -3,9 C 1,3 C 65 % 93 % 1018,2 hPa 0,0 l/m 3,5 km/h (1 Bft) O-SO 112 -4,9 C -3,9 C 6,4 km/h (2 Bft)
05.12.2019 06:08 13,9 C -3,9 C 1,3 C 65 % 93 % 1018,1 hPa 0,0 l/m 3,5 km/h (1 Bft) O-SO 112 -4,9 C -3,9 C 6,4 km/h (2 Bft)
05.12.2019 06:06 13,9 C -3,9 C 1,3 C 65 % 93 % 1018,1 hPa 0,0 l/m 3,5 km/h (1 Bft) O-SO 112 -4,9 C -3,9 C 6,4 km/h (2 Bft)
05.12.2019 06:04 13,9 C -3,9 C 1,3 C 65 % 93 % 1018,1 hPa 0,0 l/m 3,5 km/h (1 Bft) O-SO 112 -4,9 C -3,9 C 6,4 km/h (2 Bft)
05.12.2019 06:02 13,9 C -3,9 C 1,2 C 65 % 93 % 1018,1 hPa 0,0 l/m 3,4 km/h (1 Bft) O-NO 67 -4,9 C -3,9 C 6,2 km/h (2 Bft)
05.12.2019 06:00 13,9 C -3,9 C 1,2 C 65 % 93 % 1018,1 hPa 0,0 l/m 3,2 km/h (1 Bft) O 90 -4,9 C -3,9 C 3,5 km/h (1 Bft)
05.12.2019 05:58 13,9 C -3,9 C 1,2 C 65 % 93 % 1018,1 hPa 0,0 l/m 3,2 km/h (1 Bft) O-SO 112 -4,9 C -3,9 C 2,7 km/h (1 Bft)
05.12.2019 05:56 14,1 C -3,9 C 1,2 C 65 % 93 % 1018,1 hPa 0,0 l/m 3,4 km/h (1 Bft) S 180 -4,9 C -3,9 C 3,1 km/h (1 Bft)
05.12.2019 05:54 14,1 C -3,9 C 1,2 C 65 % 93 % 1018,1 hPa 0,0 l/m 3,4 km/h (1 Bft) SO 135 -4,9 C -3,9 C 7,7 km/h (2 Bft)
05.12.2019 05:52 13,9 C -3,8 C 1,2 C 65 % 93 % 1018,1 hPa 0,0 l/m 2,7 km/h (1 Bft) SO 135 -4,8 C -3,8 C 5,4 km/h (1 Bft)
05.12.2019 05:50 13,9 C -3,8 C 1,3 C 65 % 93 % 1018,1 hPa 0,0 l/m 2,4 km/h (1 Bft) O-SO 112 -4,8 C -3,8 C 4,6 km/h (1 Bft)
05.12.2019 05:48 14,1 C -3,8 C 1,3 C 65 % 93 % 1018,1 hPa 0,0 l/m 2,6 km/h (1 Bft) O-SO 112 -4,8 C -3,8 C 4,2 km/h (1 Bft)
05.12.2019 05:46 14,1 C -3,8 C 1,3 C 65 % 93 % 1018,1 hPa 0,0 l/m 2,4 km/h (1 Bft) S-SO 157 -4,8 C -3,8 C 5,8 km/h (2 Bft)
05.12.2019 05:44 14,1 C -3,8 C 1,3 C 65 % 93 % 1018,1 hPa 0,0 l/m 2,3 km/h (1 Bft) SO 135 -4,8 C -3,8 C 3,1 km/h (1 Bft)
05.12.2019 05:42 14,1 C -3,8 C 1,3 C 65 % 93 % 1018,1 hPa 0,0 l/m 2,6 km/h (1 Bft) SO 135 -4,8 C -3,8 C 2,5 km/h (1 Bft)
05.12.2019 05:40 14,1 C -3,9 C 1,3 C 65 % 93 % 1018,1 hPa 0,0 l/m 2,6 km/h (1 Bft) O-SO 112 -4,9 C -3,9 C 4,2 km/h (1 Bft)
05.12.2019 05:38 14,1 C -3,9 C 1,3 C 65 % 93 % 1018,1 hPa 0,0 l/m 2,3 km/h (1 Bft) O-NO 67 -4,9 C -3,9 C 4,8 km/h (1 Bft)
05.12.2019 05:36 14,1 C -3,9 C 1,3 C 65 % 93 % 1018,1 hPa 0,0 l/m 2,4 km/h (1 Bft) SO 135 -4,9 C -3,9 C 3,9 km/h (1 Bft)
05.12.2019 05:34 14,1 C -3,8 C 1,3 C 65 % 93 % 1018,1 hPa 0,0 l/m 2,4 km/h (1 Bft) O-SO 112 -4,8 C -3,8 C 3,5 km/h (1 Bft)
05.12.2019 05:32 14,1 C -3,8 C 1,3 C 65 % 93 % 1018,1 hPa 0,0 l/m 2,1 km/h (1 Bft) O-NO 67 -4,8 C -3,8 C 5,4 km/h (1 Bft)
05.12.2019 05:30 14,1 C -3,8 C 1,3 C 65 % 93 % 1018,1 hPa 0,0 l/m 2,1 km/h (1 Bft) SO 135 -4,8 C -3,8 C 3,5 km/h (1 Bft)
05.12.2019 05:28 14,1 C -3,9 C 1,3 C 65 % 93 % 1018,1 hPa 0,0 l/m 2,3 km/h (1 Bft) SO 135 -4,9 C -3,9 C 0,0 km/h (0 Bft)
05.12.2019 05:26 14,1 C -3,9 C 1,3 C 65 % 93 % 1018,1 hPa 0,0 l/m 2,3 km/h (1 Bft) O 90 -4,9 C -3,9 C 3,5 km/h (1 Bft)
05.12.2019 05:24 14,1 C -3,8 C 1,3 C 65 % 93 % 1018,1 hPa 0,0 l/m 2,1 km/h (1 Bft) O-SO 112 -4,8 C -3,8 C 2,5 km/h (1 Bft)
05.12.2019 05:22 14,1 C -3,9 C 1,3 C 65 % 93 % 1018,1 hPa 0,0 l/m 2,6 km/h (1 Bft) S-SO 157 -4,9 C -3,9 C 2,1 km/h (1 Bft)
05.12.2019 05:20 14,1 C -3,8 C 1,2 C 65 % 94 % 1018,1 hPa 0,0 l/m 2,9 km/h (1 Bft) O-SO 112 -4,6 C -3,8 C 4,6 km/h (1 Bft)
05.12.2019 05:18 14,1 C -3,9 C 1,2 C 65 % 93 % 1018,1 hPa 0,0 l/m 2,9 km/h (1 Bft) SO 135 -4,9 C -3,9 C 3,5 km/h (1 Bft)
05.12.2019 05:16 14,1 C -3,9 C 1,3 C 65 % 94 % 1018,1 hPa 0,0 l/m 3,2 km/h (1 Bft) SO 135 -4,7 C -3,9 C 4,1 km/h (1 Bft)
05.12.2019 05:14 14,1 C -3,9 C 1,2 C 65 % 94 % 1018,1 hPa 0,0 l/m 3,4 km/h (1 Bft) O-SO 112 -4,7 C -3,9 C 3,1 km/h (1 Bft)
05.12.2019 05:12 13,9 C -3,9 C 1,2 C 65 % 94 % 1018,1 hPa 0,0 l/m 3,1 km/h (1 Bft) SO 135 -4,7 C -3,9 C 4,1 km/h (1 Bft)
05.12.2019 05:10 14,1 C -3,9 C 1,3 C 65 % 94 % 1018,1 hPa 0,0 l/m 3,1 km/h (1 Bft) S 180 -4,7 C -3,9 C 6,2 km/h (2 Bft)
05.12.2019 05:08 14,1 C -3,8 C 1,3 C 65 % 94 % 1017,9 hPa 0,0 l/m 2,7 km/h (1 Bft) O 90 -4,6 C -3,8 C 4,6 km/h (1 Bft)
05.12.2019 05:06 14,1 C -3,8 C 1,3 C 65 % 94 % 1017,9 hPa 0,0 l/m 2,6 km/h (1 Bft) SO 135 -4,6 C -3,8 C 5,4 km/h (1 Bft)
05.12.2019 05:04 14,1 C -3,8 C 1,3 C 65 % 94 % 1017,9 hPa 0,0 l/m 3,1 km/h (1 Bft) O 90 -4,6 C -3,8 C 3,5 km/h (1 Bft)
05.12.2019 05:02 14,1 C -3,8 C 1,3 C 65 % 94 % 1017,9 hPa 0,0 l/m 3,2 km/h (1 Bft) O 90 -4,6 C -3,8 C 2,9 km/h (1 Bft)
05.12.2019 05:00 14,1 C -3,8 C 1,2 C 65 % 94 % 1017,9 hPa 0,0 l/m 3,4 km/h (1 Bft) NO 45 -4,6 C -3,8 C 5,0 km/h (1 Bft)
05.12.2019 04:58 14,1 C -3,8 C 1,2 C 65 % 94 % 1017,9 hPa 0,0 l/m 3,7 km/h (1 Bft) SO 135 -4,6 C -3,8 C 4,6 km/h (1 Bft)
05.12.2019 04:56 14,1 C -3,8 C 1,2 C 65 % 94 % 1017,9 hPa 0,0 l/m 3,5 km/h (1 Bft) O-NO 67 -4,6 C -3,8 C 4,1 km/h (1 Bft)
05.12.2019 04:54 14,1 C -3,8 C 1,2 C 65 % 94 % 1017,9 hPa 0,0 l/m 3,5 km/h (1 Bft) O-SO 112 -4,6 C -3,8 C 9,7 km/h (2 Bft)
05.12.2019 04:52 14,1 C -3,8 C 1,2 C 65 % 94 % 1017,9 hPa 0,0 l/m 3,7 km/h (1 Bft) O-SO 112 -4,6 C -3,8 C 4,8 km/h (1 Bft)
05.12.2019 04:50 14,1 C -3,8 C 1,2 C 65 % 94 % 1017,9 hPa 0,0 l/m 3,7 km/h (1 Bft) O 90 -4,6 C -3,8 C 6,6 km/h (2 Bft)
05.12.2019 04:48 14,1 C -3,8 C 1,2 C 65 % 94 % 1018,1 hPa 0,0 l/m 3,7 km/h (1 Bft) O-SO 112 -4,6 C -3,8 C 5,6 km/h (1 Bft)
05.12.2019 04:46 14,1 C -3,8 C 1,2 C 65 % 94 % 1018,1 hPa 0,0 l/m 3,7 km/h (1 Bft) SO 135 -4,6 C -3,8 C 3,5 km/h (1 Bft)
05.12.2019 04:44 14,1 C -3,8 C 1,2 C 65 % 94 % 1018,1 hPa 0,0 l/m 3,9 km/h (1 Bft) O-SO 112 -4,6 C -3,8 C 4,8 km/h (1 Bft)
05.12.2019 04:42 14,1 C -3,7 C 1,2 C 65 % 94 % 1018,1 hPa 0,0 l/m 3,7 km/h (1 Bft) O-SO 112 -4,5 C -3,7 C 7,3 km/h (2 Bft)
05.12.2019 04:40 14,1 C -3,7 C 1,1 C 65 % 94 % 1018,1 hPa 0,0 l/m 3,7 km/h (1 Bft) SO 135 -4,5 C -3,7 C 5,2 km/h (1 Bft)
05.12.2019 04:38 14,1 C -3,7 C 1,2 C 65 % 94 % 1018,1 hPa 0,0 l/m 3,9 km/h (1 Bft) SO 135 -4,5 C -3,7 C 3,3 km/h (1 Bft)
05.12.2019 04:36 14,1 C -3,8 C 1,2 C 65 % 94 % 1018,1 hPa 0,0 l/m 3,9 km/h (1 Bft) O-SO 112 -4,6 C -3,8 C 6,8 km/h (2 Bft)
05.12.2019 04:34 14,1 C -3,8 C 1,2 C 65 % 94 % 1018,1 hPa 0,0 l/m 3,7 km/h (1 Bft) O-SO 112 -4,6 C -3,8 C 7,1 km/h (2 Bft)
05.12.2019 04:32 14,1 C -3,7 C 1,1 C 65 % 94 % 1018,1 hPa 0,0 l/m 3,5 km/h (1 Bft) O-SO 112 -4,5 C -3,7 C 2,9 km/h (1 Bft)
05.12.2019 04:30 14,1 C -3,7 C 1,1 C 65 % 94 % 1018,1 hPa 0,0 l/m 3,9 km/h (1 Bft) SO 135 -4,5 C -3,7 C 5,0 km/h (1 Bft)
05.12.2019 04:28 14,1 C -3,7 C 1,2 C 65 % 94 % 1017,9 hPa 0,0 l/m 4,0 km/h (1 Bft) SO 135 -4,5 C -3,7 C 5,4 km/h (1 Bft)
05.12.2019 04:26 14,1 C -3,7 C 1,1 C 65 % 94 % 1017,9 hPa 0,0 l/m 3,9 km/h (1 Bft) S-SO 157 -4,5 C -3,7 C 5,6 km/h (1 Bft)
05.12.2019 04:24 14,1 C -3,8 C 1,2 C 65 % 94 % 1017,9 hPa 0,0 l/m 3,9 km/h (1 Bft) SO 135 -4,6 C -3,8 C 4,1 km/h (1 Bft)
05.12.2019 04:22 14,1 C -3,8 C 1,2 C 65 % 94 % 1017,9 hPa 0,0 l/m 3,9 km/h (1 Bft) SO 135 -4,6 C -3,8 C 5,0 km/h (1 Bft)
05.12.2019 04:20 14,1 C -3,8 C 1,2 C 65 % 94 % 1017,9 hPa 0,0 l/m 3,5 km/h (1 Bft) S-SO 157 -4,6 C -3,8 C 9,3 km/h (2 Bft)
05.12.2019 04:18 14,1 C -3,7 C 1,2 C 65 % 94 % 1017,9 hPa 0,0 l/m 2,6 km/h (1 Bft) SO 135 -4,5 C -3,7 C 7,3 km/h (2 Bft)
05.12.2019 04:16 14,1 C -3,7 C 1,2 C 65 % 94 % 1017,9 hPa 0,0 l/m 2,3 km/h (1 Bft) SO 135 -4,5 C -3,7 C 4,6 km/h (1 Bft)
05.12.2019 04:14 14,1 C -3,7 C 1,2 C 65 % 94 % 1017,9 hPa 0,0 l/m 2,4 km/h (1 Bft) S-SO 157 -4,5 C -3,7 C 2,7 km/h (1 Bft)
05.12.2019 04:12 14,1 C -3,7 C 1,3 C 65 % 94 % 1017,9 hPa 0,0 l/m 2,4 km/h (1 Bft) O 90 -4,5 C -3,7 C 4,4 km/h (1 Bft)
05.12.2019 04:10 14,1 C -3,5 C 1,3 C 65 % 94 % 1017,9 hPa 0,0 l/m 2,4 km/h (1 Bft) SO 135 -4,3 C -3,5 C 3,5 km/h (1 Bft)
05.12.2019 04:08 14,1 C -3,7 C 1,3 C 65 % 94 % 1017,7 hPa 0,0 l/m 2,6 km/h (1 Bft) O-SO 112 -4,5 C -3,7 C 0,0 km/h (0 Bft)
05.12.2019 04:06 14,1 C -3,7 C 1,3 C 65 % 94 % 1017,7 hPa 0,0 l/m 2,9 km/h (1 Bft) O-NO 67 -4,5 C -3,7 C 3,9 km/h (1 Bft)
05.12.2019 04:04 14,1 C -3,7 C 1,2 C 65 % 94 % 1017,7 hPa 0,0 l/m 3,2 km/h (1 Bft) O-SO 112 -4,5 C -3,7 C 4,8 km/h (1 Bft)
05.12.2019 04:02 14,2 C -3,7 C 1,2 C 65 % 94 % 1017,7 hPa 0,0 l/m 3,1 km/h (1 Bft) O-NO 67 -4,5 C -3,7 C 4,8 km/h (1 Bft)
05.12.2019 04:00 14,2 C -3,7 C 1,2 C 65 % 94 % 1017,7 hPa 0,0 l/m 2,7 km/h (1 Bft) O 90 -4,5 C -3,7 C 5,4 km/h (1 Bft)
05.12.2019 03:58 14,2 C -3,7 C 1,2 C 65 % 94 % 1017,7 hPa 0,0 l/m 2,7 km/h (1 Bft) O-SO 112 -4,5 C -3,7 C 2,5 km/h (1 Bft)
05.12.2019 03:56 14,1 C -3,7 C 1,2 C 65 % 94 % 1017,7 hPa 0,0 l/m 2,7 km/h (1 Bft) O-SO 112 -4,5 C -3,7 C 3,9 km/h (1 Bft)
05.12.2019 03:54 14,2 C -3,7 C 1,2 C 65 % 94 % 1017,7 hPa 0,0 l/m 2,7 km/h (1 Bft) O 90 -4,5 C -3,7 C 5,0 km/h (1 Bft)
05.12.2019 03:52 14,2 C -3,7 C 1,2 C 65 % 94 % 1017,7 hPa 0,0 l/m 2,9 km/h (1 Bft) O 90 -4,5 C -3,7 C 4,1 km/h (1 Bft)
05.12.2019 03:50 14,2 C -3,7 C 1,2 C 65 % 94 % 1017,7 hPa 0,0 l/m 3,2 km/h (1 Bft) SO 135 -4,5 C -3,7 C 2,3 km/h (1 Bft)
05.12.2019 03:48 14,2 C -3,7 C 1,2 C 65 % 94 % 1017,6 hPa 0,0 l/m 3,4 km/h (1 Bft) N-NW 337 -4,5 C -3,7 C 3,5 km/h (1 Bft)
05.12.2019 03:46 14,2 C -3,7 C 1,2 C 65 % 94 % 1017,6 hPa 0,0 l/m 3,9 km/h (1 Bft) SO 135 -4,5 C -3,7 C 3,3 km/h (1 Bft)
05.12.2019 03:44 14,1 C -3,7 C 1,2 C 65 % 94 % 1017,6 hPa 0,0 l/m 4,2 km/h (1 Bft) O-NO 67 -4,5 C -3,7 C 5,4 km/h (1 Bft)
05.12.2019 03:42 14,2 C -3,7 C 1,2 C 65 % 94 % 1017,6 hPa 0,0 l/m 4,5 km/h (1 Bft) SO 135 -4,5 C -3,7 C 4,8 km/h (1 Bft)
05.12.2019 03:40 14,2 C -3,7 C 1,2 C 65 % 94 % 1017,6 hPa 0,0 l/m 4,5 km/h (1 Bft) O-SO 112 -4,5 C -3,7 C 4,2 km/h (1 Bft)
05.12.2019 03:38 14,2 C -3,7 C 1,2 C 65 % 94 % 1017,6 hPa 0,0 l/m 4,7 km/h (1 Bft) SO 135 -4,5 C -5,6 C 5,8 km/h (2 Bft)
05.12.2019 03:36 14,2 C -3,7 C 1,1 C 65 % 94 % 1017,6 hPa 0,0 l/m 4,5 km/h (1 Bft) O 90 -4,5 C -3,7 C 7,1 km/h (2 Bft)
05.12.2019 03:34 14,2 C -3,7 C 1,1 C 65 % 94 % 1017,6 hPa 0,0 l/m 4,0 km/h (1 Bft) SO 135 -4,5 C -3,7 C 7,3 km/h (2 Bft)
05.12.2019 03:32 14,2 C -3,5 C 1,2 C 65 % 94 % 1017,6 hPa 0,0 l/m 3,9 km/h (1 Bft) SO 135 -4,3 C -3,5 C 8,3 km/h (2 Bft)
05.12.2019 03:30 14,2 C -3,7 C 1,2 C 65 % 94 % 1017,6 hPa 0,0 l/m 3,9 km/h (1 Bft) O-SO 112 -4,5 C -3,7 C 4,4 km/h (1 Bft)
05.12.2019 03:28 14,2 C -3,5 C 1,2 C 65 % 94 % 1017,4 hPa 0,0 l/m 3,9 km/h (1 Bft) O-SO 112 -4,3 C -3,5 C 4,8 km/h (1 Bft)
05.12.2019 03:26 14,2 C -3,5 C 1,2 C 65 % 94 % 1017,4 hPa 0,0 l/m 3,5 km/h (1 Bft) SO 135 -4,3 C -3,5 C 9,8 km/h (2 Bft)
05.12.2019 03:24 14,2 C -3,5 C 1,2 C 65 % 94 % 1017,4 hPa 0,0 l/m 3,4 km/h (1 Bft) O-NO 67 -4,3 C -3,5 C 5,4 km/h (1 Bft)
05.12.2019 03:22 14,2 C -3,5 C 1,2 C 65 % 94 % 1017,4 hPa 0,0 l/m 3,5 km/h (1 Bft) O-NO 67 -4,3 C -3,5 C 5,0 km/h (1 Bft)
05.12.2019 03:20 14,2 C -3,7 C 1,2 C 65 % 94 % 1017,4 hPa 0,0 l/m 3,1 km/h (1 Bft) O-SO 112 -4,5 C -3,7 C 7,0 km/h (2 Bft)
05.12.2019 03:18 14,2 C -3,7 C 1,2 C 65 % 94 % 1017,4 hPa 0,0 l/m 2,7 km/h (1 Bft) SO 135 -4,5 C -3,7 C 6,0 km/h (2 Bft)
05.12.2019 03:16 14,2 C -3,7 C 1,2 C 65 % 94 % 1017,4 hPa 0,0 l/m 2,6 km/h (1 Bft) O-SO 112 -4,5 C -3,7 C 4,6 km/h (1 Bft)
05.12.2019 03:14 14,2 C -3,7 C 1,2 C 65 % 94 % 1017,4 hPa 0,0 l/m 2,7 km/h (1 Bft) O-SO 112 -4,5 C -3,7 C 4,4 km/h (1 Bft)
05.12.2019 03:12 14,2 C -3,7 C 1,2 C 65 % 94 % 1017,4 hPa 0,0 l/m 4,8 km/h (1 Bft) O-NO 67 -4,5 C -5,7 C 8,1 km/h (2 Bft)
05.12.2019 03:10 14,2 C -3,7 C 1,2 C 65 % 94 % 1017,4 hPa 0,0 l/m 4,8 km/h (1 Bft) O-NO 67 -4,5 C -5,7 C 8,1 km/h (2 Bft)
05.12.2019 03:08 14,2 C -3,7 C 1,2 C 65 % 94 % 1017,4 hPa 0,0 l/m 4,8 km/h (1 Bft) O-NO 67 -4,5 C -5,7 C 8,1 km/h (2 Bft)
05.12.2019 03:06 14,2 C -3,7 C 1,2 C 65 % 94 % 1017,4 hPa 0,0 l/m 4,8 km/h (1 Bft) O-NO 67 -4,5 C -5,7 C 8,1 km/h (2 Bft)
05.12.2019 03:04 14,2 C -3,7 C 1,2 C 65 % 94 % 1017,4 hPa 0,0 l/m 4,8 km/h (1 Bft) O-NO 67 -4,5 C -5,7 C 8,1 km/h (2 Bft)
05.12.2019 03:02 14,2 C -3,7 C 1,2 C 65 % 94 % 1017,4 hPa 0,0 l/m 4,2 km/h (1 Bft) O-NO 67 -4,5 C -3,7 C 11,0 km/h (2 Bft)
05.12.2019 03:00 14,2 C -3,5 C 1,2 C 65 % 94 % 1017,4 hPa 0,0 l/m 3,7 km/h (1 Bft) O-NO 67 -4,3 C -3,5 C 8,1 km/h (2 Bft)
05.12.2019 02:58 14,2 C -3,5 C 1,2 C 65 % 94 % 1017,4 hPa 0,0 l/m 3,5 km/h (1 Bft) O 90 -4,3 C -3,5 C 3,9 km/h (1 Bft)
05.12.2019 02:56 14,1 C -3,5 C 1,2 C 65 % 94 % 1017,4 hPa 0,0 l/m 3,7 km/h (1 Bft) O 90 -4,3 C -3,5 C 5,4 km/h (1 Bft)
05.12.2019 02:54 14,2 C -3,5 C 1,1 C 65 % 94 % 1017,4 hPa 0,0 l/m 3,4 km/h (1 Bft) O-SO 112 -4,3 C -3,5 C 4,2 km/h (1 Bft)
05.12.2019 02:52 14,1 C -3,5 C 1,1 C 65 % 94 % 1017,4 hPa 0,0 l/m 3,5 km/h (1 Bft) SO 135 -4,3 C -3,5 C 4,6 km/h (1 Bft)
05.12.2019 02:50 14,2 C -3,5 C 1,2 C 65 % 94 % 1017,4 hPa 0,0 l/m 3,9 km/h (1 Bft) O-NO 67 -4,3 C -3,5 C 2,3 km/h (1 Bft)
05.12.2019 02:48 14,2 C -3,7 C 1,2 C 65 % 94 % 1017,4 hPa 0,0 l/m 4,2 km/h (1 Bft) O-NO 67 -4,5 C -3,7 C 6,4 km/h (2 Bft)
05.12.2019 02:46 14,1 C -3,5 C 1,2 C 65 % 94 % 1017,4 hPa 0,0 l/m 4,0 km/h (1 Bft) SO 135 -4,3 C -3,5 C 5,8 km/h (2 Bft)
05.12.2019 02:44 14,1 C -3,5 C 1,2 C 65 % 94 % 1017,4 hPa 0,0 l/m 4,2 km/h (1 Bft) SO 135 -4,3 C -3,5 C 6,0 km/h (2 Bft)
05.12.2019 02:42 14,2 C -3,5 C 1,2 C 65 % 94 % 1017,4 hPa 0,0 l/m 4,2 km/h (1 Bft) SW 225 -4,3 C -3,5 C 5,2 km/h (1 Bft)
05.12.2019 02:40 14,2 C -3,5 C 1,2 C 65 % 94 % 1017,4 hPa 0,0 l/m 4,2 km/h (1 Bft) O-NO 67 -4,3 C -3,5 C 6,6 km/h (2 Bft)
05.12.2019 02:38 14,1 C -3,7 C 1,2 C 65 % 94 % 1017,4 hPa 0,0 l/m 3,9 km/h (1 Bft) O 90 -4,5 C -3,7 C 5,2 km/h (1 Bft)
05.12.2019 02:36 14,1 C -3,5 C 1,2 C 65 % 94 % 1017,4 hPa 0,0 l/m 3,7 km/h (1 Bft) SO 135 -4,3 C -3,5 C 4,2 km/h (1 Bft)
05.12.2019 02:34 14,1 C -3,5 C 1,1 C 65 % 94 % 1017,4 hPa 0,0 l/m 3,7 km/h (1 Bft) O 90 -4,3 C -3,5 C 4,4 km/h (1 Bft)
05.12.2019 02:32 14,1 C -3,5 C 1,1 C 65 % 94 % 1017,4 hPa 0,0 l/m 3,2 km/h (1 Bft) O 90 -4,3 C -3,5 C 5,2 km/h (1 Bft)
05.12.2019 02:30 14,1 C -3,5 C 1,2 C 65 % 94 % 1017,4 hPa 0,0 l/m 2,9 km/h (1 Bft) SO 135 -4,3 C -3,5 C 6,4 km/h (2 Bft)
05.12.2019 02:28 14,2 C -3,5 C 1,1 C 65 % 94 % 1017,3 hPa 0,0 l/m 2,9 km/h (1 Bft) O-SO 112 -4,3 C -3,5 C 2,7 km/h (1 Bft)
05.12.2019 02:26 14,1 C -3,5 C 1,1 C 65 % 94 % 1017,3 hPa 0,0 l/m 3,1 km/h (1 Bft) O-SO 112 -4,3 C -3,5 C 5,2 km/h (1 Bft)
05.12.2019 02:24 14,3 C -3,5 C 1,1 C 65 % 94 % 1017,3 hPa 0,0 l/m 3,1 km/h (1 Bft) O-SO 112 -4,3 C -3,5 C 4,6 km/h (1 Bft)
05.12.2019 02:22 14,1 C -3,5 C 1,1 C 65 % 94 % 1017,3 hPa 0,0 l/m 3,4 km/h (1 Bft) O-NO 67 -4,3 C -3,5 C 2,7 km/h (1 Bft)
05.12.2019 02:20 14,1 C -3,5 C 1,1 C 65 % 94 % 1017,3 hPa 0,0 l/m 3,7 km/h (1 Bft) O-SO 112 -4,3 C -3,5 C 3,9 km/h (1 Bft)
05.12.2019 02:18 14,1 C -3,5 C 1,1 C 65 % 94 % 1017,3 hPa 0,0 l/m 4,3 km/h (1 Bft) O-SO 112 -4,3 C -3,5 C 4,4 km/h (1 Bft)
05.12.2019 02:16 14,1 C -3,5 C 1,1 C 65 % 94 % 1017,3 hPa 0,0 l/m 4,5 km/h (1 Bft) O-SO 112 -4,3 C -3,5 C 7,1 km/h (2 Bft)
05.12.2019 02:14 14,1 C -3,5 C 1,1 C 65 % 94 % 1017,3 hPa 0,0 l/m 4,5 km/h (1 Bft) SO 135 -4,3 C -3,5 C 6,4 km/h (2 Bft)
05.12.2019 02:12 14,3 C -3,7 C 1,1 C 65 % 94 % 1017,3 hPa 0,0 l/m 4,8 km/h (1 Bft) S-SO 157 -4,5 C -5,7 C 4,4 km/h (1 Bft)
05.12.2019 02:10 14,1 C -3,7 C 1,1 C 65 % 94 % 1017,3 hPa 0,0 l/m 5,0 km/h (1 Bft) O-SO 112 -4,5 C -5,8 C 9,1 km/h (2 Bft)
05.12.2019 02:06 14,3 C -3,7 C 1,1 C 65 % 94 % 1017,1 hPa 0,0 l/m 4,5 km/h (1 Bft) O-SO 112 -4,5 C -3,7 C 6,4 km/h (2 Bft)
05.12.2019 02:04 14,3 C -3,5 C 1,1 C 65 % 94 % 1017,1 hPa 0,0 l/m 4,3 km/h (1 Bft) O-SO 112 -4,3 C -3,5 C 7,7 km/h (2 Bft)
05.12.2019 02:02 14,3 C -3,5 C 1,1 C 65 % 94 % 1017,1 hPa 0,0 l/m 4,3 km/h (1 Bft) SO 135 -4,3 C -3,5 C 8,7 km/h (2 Bft)
05.12.2019 02:00 14,3 C -3,5 C 1,1 C 65 % 94 % 1017,1 hPa 0,0 l/m 4,2 km/h (1 Bft) O 90 -4,3 C -3,5 C 4,6 km/h (1 Bft)
05.12.2019 01:58 14,1 C -3,5 C 1,1 C 65 % 94 % 1017,1 hPa 0,0 l/m 4,2 km/h (1 Bft) O-SO 112 -4,3 C -3,5 C 7,3 km/h (2 Bft)
05.12.2019 01:56 14,3 C -3,5 C 1,1 C 65 % 94 % 1017,1 hPa 0,0 l/m 4,2 km/h (1 Bft) SO 135 -4,3 C -3,5 C 5,4 km/h (1 Bft)
05.12.2019 01:54 14,1 C -3,5 C 1,1 C 65 % 94 % 1017,1 hPa 0,0 l/m 4,0 km/h (1 Bft) O-NO 67 -4,3 C -3,5 C 7,3 km/h (2 Bft)
05.12.2019 01:52 14,3 C -3,5 C 1,1 C 65 % 94 % 1017,1 hPa 0,0 l/m 4,0 km/h (1 Bft) S-SW 202 -4,3 C -3,5 C 5,0 km/h (1 Bft)
05.12.2019 01:50 14,3 C -3,5 C 1,1 C 65 % 94 % 1017,1 hPa 0,0 l/m 3,4 km/h (1 Bft) O-NO 67 -4,3 C -3,5 C 4,4 km/h (1 Bft)
05.12.2019 01:48 14,3 C -3,5 C 1,1 C 64 % 94 % 1017,1 hPa 0,0 l/m 3,5 km/h (1 Bft) O 90 -4,3 C -3,5 C 6,6 km/h (2 Bft)
05.12.2019 01:46 14,3 C -3,5 C 1,1 C 65 % 94 % 1017,1 hPa 0,0 l/m 3,4 km/h (1 Bft) O 90 -4,3 C -3,5 C 6,4 km/h (2 Bft)
05.12.2019 01:44 14,3 C -3,5 C 1,1 C 64 % 94 % 1017,1 hPa 0,0 l/m 3,7 km/h (1 Bft) O-NO 67 -4,3 C -3,5 C 3,1 km/h (1 Bft)
05.12.2019 01:42 14,3 C -3,5 C 1,1 C 65 % 94 % 1017,1 hPa 0,0 l/m 3,9 km/h (1 Bft) O-SO 112 -4,3 C -3,5 C 5,6 km/h (1 Bft)
05.12.2019 01:40 14,3 C -3,5 C 1,1 C 65 % 94 % 1017,1 hPa 0,0 l/m 4,2 km/h (1 Bft) SO 135 -4,3 C -3,5 C 2,5 km/h (1 Bft)
05.12.2019 01:38 14,3 C -3,5 C 1,1 C 64 % 94 % 1017,1 hPa 0,0 l/m 4,8 km/h (1 Bft) SO 135 -4,3 C -5,5 C 5,4 km/h (1 Bft)
05.12.2019 01:36 14,3 C -3,5 C 1,1 C 65 % 94 % 1017,1 hPa 0,0 l/m 4,8 km/h (1 Bft) S-SO 157 -4,3 C -5,5 C 5,2 km/h (1 Bft)
05.12.2019 01:34 14,3 C -3,5 C 1,1 C 65 % 94 % 1017,1 hPa 0,0 l/m 4,3 km/h (1 Bft) O-SO 112 -4,3 C -3,5 C 7,5 km/h (2 Bft)
05.12.2019 01:32 14,3 C -3,5 C 1,1 C 65 % 94 % 1017,1 hPa 0,0 l/m 3,9 km/h (1 Bft) S 180 -4,3 C -3,5 C 7,0 km/h (2 Bft)
05.12.2019 01:30 14,3 C -3,5 C 1,1 C 65 % 94 % 1017,1 hPa 0,0 l/m 3,9 km/h (1 Bft) O-SO 112 -4,3 C -3,5 C 7,3 km/h (2 Bft)
05.12.2019 01:28 14,3 C -3,4 C 1,1 C 65 % 94 % 1017,0 hPa 0,0 l/m 3,7 km/h (1 Bft) O-SO 112 -4,2 C -3,4 C 9,8 km/h (2 Bft)
05.12.2019 01:26 14,2 C -3,4 C 1,1 C 65 % 94 % 1017,0 hPa 0,0 l/m 3,7 km/h (1 Bft) O-SO 112 -4,2 C -3,4 C 7,5 km/h (2 Bft)
05.12.2019 01:24 14,3 C -3,4 C 1,1 C 65 % 94 % 1017,0 hPa 0,0 l/m 3,9 km/h (1 Bft) NO 45 -4,2 C -3,4 C 4,4 km/h (1 Bft)
05.12.2019 01:22 14,2 C -3,4 C 1,0 C 65 % 94 % 1017,0 hPa 0,0 l/m 4,0 km/h (1 Bft) S-SO 157 -4,2 C -3,4 C 3,1 km/h (1 Bft)
05.12.2019 01:20 14,3 C -3,5 C 1,0 C 65 % 94 % 1017,0 hPa 0,0 l/m 4,0 km/h (1 Bft) S-SO 157 -4,3 C -3,5 C 7,3 km/h (2 Bft)
05.12.2019 01:18 14,2 C -3,4 C 1,1 C 65 % 94 % 1017,0 hPa 0,0 l/m 4,0 km/h (1 Bft) O-SO 112 -4,2 C -3,4 C 8,7 km/h (2 Bft)
05.12.2019 01:16 14,2 C -3,4 C 1,1 C 65 % 94 % 1017,0 hPa 0,0 l/m 4,0 km/h (1 Bft) O-NO 67 -4,2 C -3,4 C 5,4 km/h (1 Bft)
05.12.2019 01:14 14,2 C -3,4 C 1,0 C 65 % 94 % 1017,0 hPa 0,0 l/m 4,2 km/h (1 Bft) O-NO 67 -4,2 C -3,4 C 5,8 km/h (2 Bft)
05.12.2019 01:12 14,3 C -3,4 C 1,0 C 65 % 94 % 1017,0 hPa 0,0 l/m 4,8 km/h (1 Bft) SO 135 -4,2 C -5,3 C 6,0 km/h (2 Bft)
05.12.2019 01:10 14,2 C -3,4 C 1,0 C 65 % 94 % 1017,0 hPa 0,0 l/m 5,0 km/h (1 Bft) O-SO 112 -4,2 C -5,4 C 5,4 km/h (1 Bft)
05.12.2019 01:08 14,2 C -3,4 C 1,0 C 65 % 94 % 1016,9 hPa 0,0 l/m 5,0 km/h (1 Bft) O-NO 67 -4,2 C -5,4 C 6,2 km/h (2 Bft)
05.12.2019 01:06 14,4 C -3,4 C 1,0 C 65 % 94 % 1016,9 hPa 0,0 l/m 5,0 km/h (1 Bft) O-SO 112 -4,2 C -5,4 C 8,7 km/h (2 Bft)
05.12.2019 01:04 14,2 C -3,4 C 1,0 C 65 % 94 % 1016,9 hPa 0,0 l/m 5,0 km/h (1 Bft) O-NO 67 -4,2 C -5,4 C 5,6 km/h (1 Bft)
05.12.2019 01:02 14,4 C -3,4 C 1,0 C 65 % 94 % 1016,9 hPa 0,0 l/m 5,0 km/h (1 Bft) O 90 -4,2 C -5,4 C 8,9 km/h (2 Bft)
05.12.2019 01:00 14,4 C -3,4 C 1,0 C 65 % 94 % 1016,9 hPa 0,0 l/m 5,0 km/h (1 Bft) O-SO 112 -4,2 C -5,4 C 5,0 km/h (1 Bft)
05.12.2019 00:58 14,4 C -3,4 C 1,0 C 65 % 94 % 1016,9 hPa 0,0 l/m 5,3 km/h (1 Bft) O 90 -4,2 C -5,6 C 7,7 km/h (2 Bft)
05.12.2019 00:56 14,4 C -3,4 C 1,0 C 65 % 94 % 1016,9 hPa 0,0 l/m 5,6 km/h (1 Bft) O 90 -4,2 C -5,7 C 5,4 km/h (1 Bft)
05.12.2019 00:54 14,4 C -3,4 C 1,0 C 64 % 94 % 1016,9 hPa 0,0 l/m 5,6 km/h (1 Bft) SO 135 -4,2 C -5,7 C 14,1 km/h (3 Bft)
05.12.2019 00:52 14,4 C -3,4 C 1,0 C 65 % 93 % 1016,9 hPa 0,0 l/m 5,8 km/h (2 Bft) O 90 -4,4 C -5,8 C 7,7 km/h (2 Bft)
05.12.2019 00:50 14,2 C -3,4 C 1,0 C 65 % 93 % 1016,9 hPa 0,0 l/m 5,6 km/h (1 Bft) O 90 -4,4 C -5,7 C 8,3 km/h (2 Bft)
05.12.2019 00:48 14,4 C -3,4 C 1,0 C 65 % 93 % 1017,1 hPa 0,0 l/m 5,5 km/h (1 Bft) O-NO 67 -4,4 C -5,7 C 9,3 km/h (2 Bft)
05.12.2019 00:46 14,2 C -3,4 C 1,0 C 65 % 93 % 1017,1 hPa 0,0 l/m 5,3 km/h (1 Bft) O-NO 67 -4,4 C -5,6 C 12,9 km/h (3 Bft)
05.12.2019 00:44 14,4 C -3,4 C 1,0 C 65 % 93 % 1017,1 hPa 0,0 l/m 5,1 km/h (1 Bft) O 90 -4,4 C -5,5 C 10,8 km/h (2 Bft)
05.12.2019 00:42 14,4 C -3,4 C 1,0 C 65 % 93 % 1017,1 hPa 0,0 l/m 4,0 km/h (1 Bft) O-NO 67 -4,4 C -3,4 C 6,0 km/h (2 Bft)
05.12.2019 00:40 14,4 C -3,4 C 1,0 C 65 % 93 % 1017,1 hPa 0,0 l/m 3,5 km/h (1 Bft) O-NO 67 -4,4 C -3,4 C 6,4 km/h (2 Bft)
05.12.2019 00:38 14,4 C -3,4 C 1,0 C 65 % 93 % 1017,1 hPa 0,0 l/m 3,2 km/h (1 Bft) O-NO 67 -4,4 C -3,4 C 6,8 km/h (2 Bft)
05.12.2019 00:36 14,4 C -3,4 C 1,0 C 65 % 93 % 1017,1 hPa 0,0 l/m 2,9 km/h (1 Bft) O-NO 67 -4,4 C -3,4 C 7,1 km/h (2 Bft)
05.12.2019 00:34 14,4 C -3,4 C 1,0 C 65 % 93 % 1017,1 hPa 0,0 l/m 2,6 km/h (1 Bft) O-NO 67 -4,4 C -3,4 C 3,3 km/h (1 Bft)
05.12.2019 00:32 14,4 C -3,4 C 0,9 C 65 % 93 % 1017,1 hPa 0,0 l/m 2,7 km/h (1 Bft) SO 135 -4,4 C -3,4 C 2,3 km/h (1 Bft)
05.12.2019 00:30 14,4 C -3,2 C 0,9 C 65 % 93 % 1017,1 hPa 0,0 l/m 3,1 km/h (1 Bft) O-SO 112 -4,2 C -3,2 C 2,5 km/h (1 Bft)
05.12.2019 00:28 14,4 C -3,2 C 0,9 C 65 % 93 % 1017,1 hPa 0,0 l/m 3,7 km/h (1 Bft) SO 135 -4,2 C -3,2 C 3,7 km/h (1 Bft)
05.12.2019 00:26 14,4 C -3,2 C 0,9 C 65 % 93 % 1017,1 hPa 0,0 l/m 4,0 km/h (1 Bft) SO 135 -4,2 C -3,2 C 6,0 km/h (2 Bft)
05.12.2019 00:24 14,4 C -3,2 C 0,9 C 65 % 93 % 1017,1 hPa 0,0 l/m 4,0 km/h (1 Bft) S-SO 157 -4,2 C -3,2 C 9,7 km/h (2 Bft)
05.12.2019 00:22 14,4 C -3,2 C 0,9 C 65 % 93 % 1017,1 hPa 0,0 l/m 4,0 km/h (1 Bft) S-SO 157 -4,2 C -3,2 C 3,5 km/h (1 Bft)
05.12.2019 00:20 14,4 C -3,2 C 0,9 C 64 % 93 % 1017,1 hPa 0,0 l/m 4,2 km/h (1 Bft) SO 135 -4,2 C -3,2 C 5,0 km/h (1 Bft)
05.12.2019 00:18 14,4 C -3,2 C 0,9 C 64 % 93 % 1017,1 hPa 0,0 l/m 4,3 km/h (1 Bft) SO 135 -4,2 C -3,2 C 8,7 km/h (2 Bft)
05.12.2019 00:16 14,4 C -3,2 C 0,9 C 65 % 93 % 1017,1 hPa 0,0 l/m 4,0 km/h (1 Bft) S-SO 157 -4,2 C -3,2 C 7,7 km/h (2 Bft)
05.12.2019 00:14 14,4 C -3,2 C 0,9 C 65 % 93 % 1017,1 hPa 0,0 l/m 4,0 km/h (1 Bft) S-SO 157 -4,2 C -3,2 C 6,8 km/h (2 Bft)
05.12.2019 00:12 14,4 C -3,2 C 0,7 C 65 % 93 % 1017,1 hPa 0,0 l/m 3,4 km/h (1 Bft) SO 135 -4,2 C -3,2 C 5,0 km/h (1 Bft)
05.12.2019 00:10 14,4 C -3,2 C 0,7 C 65 % 93 % 1017,1 hPa 0,0 l/m 3,4 km/h (1 Bft) SO 135 -4,2 C -3,2 C 5,0 km/h (1 Bft)
05.12.2019 00:08 14,4 C -3,2 C 0,7 C 65 % 93 % 1017,2 hPa 0,0 l/m 3,4 km/h (1 Bft) SO 135 -4,2 C -3,2 C 5,0 km/h (1 Bft)
05.12.2019 00:06 14,4 C -3,2 C 0,7 C 64 % 93 % 1017,2 hPa 0,0 l/m 3,4 km/h (1 Bft) SO 135 -4,2 C -3,2 C 5,0 km/h (1 Bft)
05.12.2019 00:04 14,4 C -3,2 C 0,7 C 65 % 93 % 1017,2 hPa 0,0 l/m 3,4 km/h (1 Bft) SO 135 -4,2 C -3,2 C 5,0 km/h (1 Bft)
05.12.2019 00:02 14,4 C -3,2 C 0,7 C 64 % 93 % 1017,2 hPa 0,0 l/m 3,4 km/h (1 Bft) W-SW 247 -4,2 C -3,2 C 5,0 km/h (1 Bft)
05.12.2019 00:00 14,4 C -3,2 C 0,7 C 65 % 93 % 1017,2 hPa 0,0 l/m 3,1 km/h (1 Bft) SO 135 -4,2 C -3,2 C 4,2 km/h (1 Bft)
_ Min-Zeit 16:44 19:42 00:00 00:02 00:00 00:50 - 18:38 - - 19:42 06:38 04:08
Minimum _ 13,6 C -4,5 C 0,7 C 64 % 93 % 1016,9 hPa - 0,2 km/h (0 Bft) - - -5,5 C -6,2 C 0,0 km/h (0 Bft)
_ Max-Zeit 00:00 00:00 13:02 16:44 00:54 09:50 00:00 00:52 - - 00:00 00:00 00:54
Maximum _ 14,4 C -3,2 C 2,6 C 66 % 94 % 1019,7 hPa 0,0 l/m 5,8 km/h
O (2 Bft)
- - -4,2 C -3,2 C 14,1 km/h
SO (3 Bft)
Durchschnitt _ 13,9 C -3,8 C 1,6 C 65 % 93 % 1018,4 hPa #0,0 l/m 2,8 km/h (1 Bft) O-SO - -4,8 C -4,0 C 4,1 km/h (1 Bft)